FW6030 Weather Reports


time (UTC)temp
C
wind
direction
speed
KPH
gust
KPH
rain 1hr
cm
rain 24hr
cm
rain mn
cm
humidity
%
barometer
mb
20260506224627 17 360 16.1 27.4 0.00 0.00 0.00 78 1013.2
20260506224547 17 360 14.5 27.4 0.00 0.00 0.00 78 1013.2
20260506224427 17 360 12.9 27.4 0.00 0.00 0.00 78 1013.2
20260506224332 17 360 14.5 27.4 0.00 0.00 0.00 78 1013.1
20260506224252 17 360 16.1 27.4 0.00 0.00 0.00 78 1013.2
20260506224131 17 360 17.7 27.4 0.00 0.00 0.00 78 1013.2
20260506224052 17 360 17.7 27.4 0.00 0.00 0.00 78 1013.2
20260506223952 17 360 17.7 30.6 0.00 0.00 0.00 78 1013.2
20260506223831 17 360 17.7 30.6 0.00 0.00 0.00 78 1013.1
20260506223731 17 360 17.7 30.6 0.00 0.00 0.00 78 1013.1
20260506223616 17 360 17.7 30.6 0.00 0.00 0.00 78 1013.2
20260506223517 17 360 17.7 30.6 0.00 0.00 0.00 78 1013.2
20260506223417 17 360 17.7 30.6 0.00 0.00 0.00 78 1013.1
20260506223318 17 360 17.7 30.6 0.00 0.00 0.00 78 1013.1
20260506223217 17 360 17.7 30.6 0.00 0.00 0.00 77 1013.2
20260506223118 17 360 16.1 30.6 0.00 0.00 0.00 77 1013.1
20260506223019 17 360 17.7 30.6 0.00 0.00 0.00 77 1013.1
20260506222923 17 360 17.7 30.6 0.00 0.00 0.00 77 1013.2
20260506222823 17 360 19.3 30.6 0.00 0.00 0.00 77 1013.1
20260506222723 17 360 20.9 30.6 0.00 0.00 0.00 77 1013.0
20260506222623 17 360 17.7 30.6 0.00 0.00 0.00 77 1013.0
20260506222524 17 360 17.7 30.6 0.00 0.00 0.00 77 1013.0
20260506222424 17 360 17.7 27.4 0.00 0.00 0.00 78 1013.0
20260506222328 17 360 19.3 27.4 0.00 0.00 0.00 77 1013.0
20260506222229 17 360 20.9 27.4 0.00 0.00 0.00 77 1013.0
20260506222129 17 360 19.3 27.4 0.00 0.00 0.00 77 1013.0
20260506222030 17 360 19.3 27.4 0.00 0.00 0.00 77 1012.9
20260506221931 17 360 19.3 25.7 0.00 0.00 0.00 77 1012.9
20260506221832 17 360 17.7 25.7 0.00 0.00 0.00 77 1012.8
20260506221732 17 360 17.7 25.7 0.00 0.00 0.00 77 1012.9
20260506221616 17 360 17.7 25.7 0.00 0.00 0.00 77 1012.9
20260506221517 17 360 16.1 25.7 0.00 0.00 0.00 77 1013.0
20260506221418 17 360 16.1 25.7 0.00 0.00 0.00 77 1013.1
20260506221317 17 360 14.5 24.1 0.00 0.00 0.00 77 1013.0
20260506221217 18 360 14.5 25.7 0.00 0.00 0.00 76 1013.1
20260506221118 18 360 14.5 25.7 0.00 0.00 0.00 76 1013.1
20260506221022 18 360 14.5 25.7 0.00 0.00 0.00 76 1013.1
20260506220922 18 360 16.1 25.7 0.00 0.00 0.00 76 1013.2
20260506220822 18 360 16.1 25.7 0.00 0.00 0.00 76 1013.2
20260506220724 18 360 16.1 25.7 0.00 0.00 0.00 77 1013.1
20260506220624 18 360 16.1 25.7 0.00 0.00 0.00 77 1013.0
20260506220544 18 360 17.7 29.0 0.00 0.00 0.00 76 1013.1
20260506220423 18 360 16.1 29.0 0.00 0.00 0.00 76 1013.1
20260506220328 18 360 16.1 29.0 0.00 0.00 0.00 76 1013.1
20260506220228 18 360 14.5 29.0 0.00 0.00 0.00 77 1013.1
20260506220128 18 360 14.5 29.0 0.00 0.00 0.00 77 1013.1
20260506220029 18 360 16.1 29.0 0.00 0.00 0.00 77 1013.1
20260506215930 18 360 17.7 29.0 0.00 0.00 0.00 77 1013.1
20260506215849 18 360 19.3 29.0 0.00 0.00 0.00 76 1013.1
20260506215730 18 360 19.3 29.0 0.00 0.00 0.00 76 1013.2
20260506215649 18 360 17.7 29.0 0.00 0.00 0.00 76 1013.2
20260506215533 18 360 19.3 29.0 0.00 0.00 0.00 76 1013.2
20260506215433 18 360 17.7 29.0 0.00 0.00 0.00 76 1013.3
20260506215333 18 360 16.1 27.4 0.00 0.00 0.00 76 1013.2
20260506215254 18 360 14.5 27.4 0.00 0.00 0.00 76 1013.2
20260506215133 18 360 14.5 27.4 0.00 0.00 0.00 76 1013.1
20260506215054 18 360 12.9 27.4 0.00 0.00 0.00 76 1013.1
20260506214934 18 360 14.5 27.4 0.00 0.00 0.00 76 1013.0
20260506214818 18 360 16.1 27.4 0.00 0.00 0.00 76 1013.0
20260506214718 18 360 16.1 27.4 0.00 0.00 0.00 76 1013.0
20260506214619 18 360 16.1 29.0 0.00 0.00 0.00 76 1013.0
20260506214519 18 360 16.1 29.0 0.00 0.00 0.00 76 1013.0
20260506214420 18 360 14.5 29.0 0.00 0.00 0.00 76 1012.9
20260506214321 18 360 16.1 29.0 0.00 0.00 0.00 75 1013.0
20260506214242 18 360 14.5 35.4 0.00 0.00 0.00 75 1012.9
20260506214147 18 360 16.1 35.4 0.00 0.00 0.00 76 1012.9
20260506214026 18 360 17.7 35.4 0.00 0.00 0.00 76 1013.0
20260506213926 18 360 17.7 35.4 0.00 0.00 0.00 75 1013.0
20260506213827 18 360 19.3 35.4 0.00 0.00 0.00 75 1013.0
20260506213728 18 360 19.3 35.4 0.00 0.00 0.00 76 1013.0
20260506213649 18 360 20.9 35.4 0.00 0.00 0.00 76 1013.0
20260506213528 18 360 20.9 35.4 0.00 0.00 0.00 76 1012.9
20260506213433 18 360 20.9 35.4 0.00 0.00 0.00 75 1013.0
20260506213332 18 360 20.9 30.6 0.00 0.00 0.00 75 1013.0
20260506213232 18 360 19.3 29.0 0.00 0.00 0.00 75 1013.0
20260506213134 18 360 19.3 29.0 0.00 0.00 0.00 75 1012.9
20260506213035 18 360 17.7 33.8 0.00 0.00 0.00 75 1012.9
20260506212935 18 360 17.7 33.8 0.00 0.00 0.00 74 1012.9
20260506212817 19 360 17.7 33.8 0.00 0.00 0.00 74 1012.8
20260506212720 19 360 17.7 33.8 0.00 0.00 0.00 74 1012.8
20260506212621 19 360 19.3 33.8 0.00 0.00 0.00 75 1012.7
20260506212541 19 360 20.9 33.8 0.00 0.00 0.00 74 1012.7
20260506212422 19 360 22.5 33.8 0.00 0.00 0.00 74 1012.8
20260506212341 19 360 22.5 33.8 0.00 0.00 0.00 74 1012.8
20260506212221 19 360 20.9 33.8 0.00 0.00 0.00 74 1012.7
20260506212143 19 360 17.7 33.8 0.00 0.00 0.00 74 1012.8
20260506212042 19 360 16.1 33.8 0.00 0.00 0.00 73 1012.8
20260506211926 19 360 16.1 30.6 0.00 0.00 0.00 73 1012.8
20260506211827 20 360 16.1 30.6 0.00 0.00 0.00 73 1012.9
20260506211728 20 360 16.1 30.6 0.00 0.00 0.00 72 1012.8
20260506211628 20 360 16.1 30.6 0.00 0.00 0.00 72 1012.9
20260506211549 20 360 16.1 30.6 0.00 0.00 0.00 73 1012.8
20260506211429 20 360 16.1 32.2 0.00 0.00 0.00 73 1012.8
20260506211329 20 360 17.7 32.2 0.00 0.00 0.00 73 1012.8
20260506211234 20 360 19.3 32.2 0.00 0.00 0.00 72 1012.7
20260506211133 20 360 17.7 32.2 0.00 0.00 0.00 73 1012.8
20260506211034 20 360 17.7 32.2 0.00 0.00 0.00 73 1012.8
20260506210935 20 360 17.7 33.8 0.00 0.00 0.00 73 1012.8
20260506210816 20 360 17.7 33.8 0.00 0.00 0.00 73 1012.7
20260506210717 20 360 20.9 33.8 0.00 0.00 0.00 72 1012.6
20260506210622 20 360 19.3 33.8 0.00 0.00 0.00 72 1012.7
20260506210523 20 360 17.7 33.8 0.00 0.00 0.00 72 1012.7
20260506210443 20 360 16.1 33.8 0.00 0.00 0.00 72 1012.7
20260506210404 21 360 14.5 33.8 0.00 0.00 0.00 73 1012.7
20260506210216 20 360 17.7 33.8 0.00 0.00 0.00 72 1012.8
20260506210117 20 360 19.3 33.8 0.00 0.00 0.00 72 1012.8
20260506210017 20 360 19.3 33.8 0.00 0.00 0.00 72 1012.9
20260506205918 21 360 20.9 33.8 0.00 0.00 0.00 71 1012.9
20260506205824 21 360 19.3 33.8 0.00 0.00 0.00 72 1012.8
20260506205744 21 360 19.3 30.6 0.00 0.00 0.00 72 1012.8
20260506205624 21 360 19.3 30.6 0.00 0.00 0.00 71 1012.9
20260506205524 21 360 17.7 30.6 0.00 0.00 0.00 72 1012.8
20260506205425 21 360 19.3 35.4 0.00 0.00 0.00 72 1012.9
20260506205326 21 360 19.3 35.4 0.00 0.00 0.00 72 1012.9
20260506205224 21 360 17.7 35.4 0.00 0.00 0.00 72 1012.9
20260506205128 21 360 17.7 35.4 0.00 0.00 0.00 73 1012.9
20260506205028 21 360 17.7 35.4 0.00 0.00 0.00 73 1012.8
20260506204929 21 360 19.3 35.4 0.00 0.00 0.00 72 1012.8
20260506204830 21 360 17.7 35.4 0.00 0.00 0.00 72 1012.8
20260506204750 21 360 17.7 33.8 0.00 0.00 0.00 72 1012.8
20260506204650 21 360 17.7 33.8 0.00 0.00 0.00 72 1012.8
20260506204528 21 360 17.7 32.2 0.00 0.00 0.00 72 1012.8
20260506204449 21 360 16.1 32.2 0.00 0.00 0.00 72 1012.8
20260506204332 21 360 17.7 32.2 0.00 0.00 0.00 71 1012.9
20260506204233 22 360 17.7 32.2 0.00 0.00 0.00 71 1013.0
20260506204135 22 360 16.1 32.2 0.00 0.00 0.00 72 1012.9
20260506204034 22 360 14.5 32.2 0.00 0.00 0.00 71 1013.0
20260506203933 22 360 16.1 32.2 0.00 0.00 0.00 72 1013.1
20260506203835 22 360 16.1 32.2 0.00 0.00 0.00 72 1013.1
20260506203735 22 360 14.5 32.2 0.00 0.00 0.00 73 1013.0
20260506203619 21 360 16.1 32.2 0.00 0.00 0.00 72 1013.0
20260506203519 22 360 16.1 27.4 0.00 0.00 0.00 72 1013.1
20260506203420 22 360 17.7 27.4 0.00 0.00 0.00 72 1013.1
20260506203340 22 360 17.7 27.4 0.00 0.00 0.00 72 1013.1
20260506203221 22 360 16.1 27.4 0.00 0.00 0.00 72 1013.1
20260506203122 22 360 14.5 27.4 0.00 0.00 0.00 72 1013.1
20260506203024 22 360 14.5 30.6 0.00 0.00 0.00 73 1013.1
20260506202928 22 360 14.5 30.6 0.00 0.00 0.00 73 1013.1
20260506202829 22 360 16.1 30.6 0.00 0.00 0.00 72 1013.1
20260506202750 22 49 16.1 30.6 0.00 0.00 0.00 72 1013.1
20260506202628 22 360 16.1 30.6 0.00 0.00 0.00 72 1013.1
20260506202529 22 360 16.1 30.6 0.00 0.00 0.00 74 1013.2
20260506202430 22 360 16.1 30.6 0.00 0.00 0.00 74 1013.1
20260506202350 22 360 16.1 30.6 0.00 0.00 0.00 73 1013.2
20260506202250 22 360 16.1 29.0 0.00 0.00 0.00 73 1013.1
20260506202132 22 360 17.7 29.0 0.00 0.00 0.00 72 1013.1
20260506202033 22 360 16.1 27.4 0.00 0.00 0.00 72 1013.0
20260506201934 22 360 16.1 27.4 0.00 0.00 0.00 73 1013.0
20260506201835 22 360 16.1 27.4 0.00 0.00 0.00 74 1013.0
20260506201735 22 360 16.1 27.4 0.00 0.00 0.00 74 1013.0
20260506201635 22 360 16.1 27.4 0.00 0.00 0.00 74 1013.0
20260506201540 22 360 16.1 27.4 0.00 0.00 0.00 74 1012.9
20260506201418 21 360 16.1 27.4 0.00 0.00 0.00 74 1012.9
20260506201318 22 360 17.7 33.8 0.00 0.00 0.00 74 1013.0
20260506201218 22 360 19.3 33.8 0.00 0.00 0.00 74 1013.0
20260506201118 22 360 19.3 33.8 0.00 0.00 0.00 73 1013.0
20260506201019 22 360 17.7 33.8 0.00 0.00 0.00 73 1012.9
20260506200940 22 360 16.1 33.8 0.00 0.00 0.00 73 1012.9
20260506200819 22 360 16.1 33.8 0.00 0.00 0.00 73 1012.9
20260506200724 22 360 16.1 33.8 0.00 0.00 0.00 74 1012.8
20260506200625 22 360 16.1 33.8 0.00 0.00 0.00 73 1012.8
20260506200546 22 360 17.7 35.4 0.00 0.00 0.00 73 1012.8
20260506200424 22 360 16.1 35.4 0.00 0.00 0.00 73 1012.7
20260506200345 22 360 17.7 35.4 0.00 0.00 0.00 73 1012.7
20260506200224 22 360 16.1 35.4 0.00 0.00 0.00 73 1012.6
20260506200144 22 360 17.7 35.4 0.00 0.00 0.00 73 1012.7
20260506200024 22 360 20.9 35.4 0.00 0.00 0.00 73 1012.8
20260506195925 22 360 20.9 35.4 0.00 0.00 0.00 73 1012.7
20260506195828 22 360 22.5 35.4 0.00 0.00 0.00 72 1012.7
20260506195731 22 360 22.5 35.4 0.00 0.00 0.00 72 1012.7
20260506195630 22 360 20.9 35.4 0.00 0.00 0.00 72 1012.6
20260506195551 22 360 19.3 33.8 0.00 0.00 0.00 73 1012.6
20260506195431 22 360 17.7 33.8 0.00 0.00 0.00 73 1012.7
20260506195331 22 360 19.3 35.4 0.00 0.00 0.00 73 1012.6
20260506195231 22 360 19.3 35.4 0.00 0.00 0.00 73 1012.6
20260506195135 22 360 19.3 35.4 0.00 0.00 0.00 73 1012.5
20260506195036 22 360 19.3 35.4 0.00 0.00 0.00 72 1012.5
20260506194930 23 360 17.7 35.4 0.00 0.00 0.00 73 1012.5
20260506194830 23 360 17.7 35.4 0.00 0.00 0.00 74 1012.4
20260506194731 23 360 19.3 35.4 0.00 0.00 0.00 74 1012.4
20260506194630 22 360 20.9 35.4 0.00 0.00 0.00 74 1012.4
20260506194551 22 360 20.9 35.4 0.00 0.00 0.00 74 1012.4
20260506194434 22 360 22.5 35.4 0.00 0.00 0.00 74 1012.4
20260506194334 22 360 20.9 33.8 0.00 0.00 0.00 74 1012.4
20260506194217 22 360 20.9 33.8 0.00 0.00 0.00 74 1012.4
20260506194117 22 360 19.3 33.8 0.00 0.00 0.00 74 1012.3
20260506194018 22 360 19.3 33.8 0.00 0.00 0.00 74 1012.3
20260506193918 22 360 19.3 33.8 0.00 0.00 0.00 74 1012.4
20260506193823 22 360 19.3 33.8 0.00 0.00 0.00 74 1012.5
20260506193722 22 360 20.9 33.8 0.00 0.00 0.00 74 1012.5
20260506193645 22 360 20.9 33.8 0.00 0.00 0.00 74 1012.4
20260506193524 22 360 20.9 33.8 0.00 0.00 0.00 74 1012.4
20260506193423 23 360 19.3 33.8 0.00 0.00 0.00 74 1012.4
20260506193324 23 360 17.7 35.4 0.00 0.00 0.00 74 1012.3
20260506193224 23 360 17.7 35.4 0.00 0.00 0.00 74 1012.4
20260506193125 23 360 19.3 35.4 0.00 0.00 0.00 74 1012.4
20260506193049 23 360 19.3 35.4 0.00 0.00 0.00 74 1012.4
20260506192928 23 360 19.3 35.4 0.00 0.00 0.00 74 1012.3
20260506192828 23 360 20.9 35.4 0.00 0.00 0.00 74 1012.4
20260506192750 23 360 19.3 35.4 0.00 0.00 0.00 74 1012.5
20260506192628 23 360 19.3 35.4 0.00 0.00 0.00 72 1012.4
20260506192529 24 360 19.3 35.4 0.00 0.00 0.00 72 1012.3
20260506192430 24 360 17.7 30.6 0.00 0.00 0.00 73 1012.3
20260506192333 25 360 17.7 27.4 0.00 0.00 0.00 71 1012.3
20260506192234 25 360 17.7 27.4 0.00 0.00 0.00 71 1012.3
20260506192135 25 360 16.1 27.4 0.00 0.00 0.00 71 1012.3
20260506192035 25 360 14.5 25.7 0.00 0.00 0.00 70 1012.3
20260506191917 25 360 12.9 22.5 0.00 0.00 0.00 70 1012.3
20260506191817 25 360 12.9 22.5 0.00 0.00 0.00 70 1012.3
20260506191721 25 360 12.9 22.5 0.00 0.00 0.00 70 1012.3
20260506191622 25 360 12.9 22.5 0.00 0.00 0.00 70 1012.3
20260506191542 25 360 14.5 22.5 0.00 0.00 0.00 70 1012.3
20260506191416 25 360 14.5 22.5 0.00 0.00 0.00 70 1012.4
20260506191317 26 360 14.5 22.5 0.00 0.00 0.00 70 1012.3
20260506191217 26 11 14.5 22.5 0.00 0.00 0.00 70 1012.3
20260506191117 26 360 12.9 22.5 0.00 0.00 0.00 70 1012.3
20260506191021 26 360 14.5 22.5 0.00 0.00 0.00 69 1012.3
20260506190922 26 360 12.9 22.5 0.00 0.00 0.00 69 1012.3
20260506190843 26 360 12.9 22.5 0.00 0.00 0.00 69 1012.3
20260506190803 26 360 12.9 19.3 0.00 0.00 0.00 69 1012.3
20260506190616 26 360 12.9 19.3 0.00 0.00 0.00 69 1012.4
20260506190517 26 360 14.5 19.3 0.00 0.00 0.00 69 1012.4
20260506190416 26 360 12.9 19.3 0.00 0.00 0.00 69 1012.5
20260506190320 26 360 11.3 19.3 0.00 0.00 0.00 69 1012.5
20260506190221 26 360 8.0 16.1 0.00 0.00 0.00 70 1012.6
20260506190121 26 360 6.4 16.1 0.00 0.00 0.00 70 1012.6
20260506190022 26 360 6.4 16.1 0.00 0.00 0.00 70 1012.7
20260506185923 26 360 6.4 16.1 0.00 0.00 0.00 70 1012.6
20260506185825 26 360 8.0 16.1 0.00 0.00 0.00 70 1012.6
20260506185725 26 360 8.0 16.1 0.00 0.00 0.00 70 1012.6
20260506185629 26 360 8.0 16.1 0.00 0.00 0.00 71 1012.6
20260506185550 26 360 8.0 16.1 0.00 0.00 0.00 71 1012.6
20260506185429 26 360 6.4 16.1 0.00 0.00 0.00 72 1012.6
20260506185331 26 360 4.8 16.1 0.00 0.00 0.00 72 1012.5
20260506185252 25 360 4.8 16.1 0.00 0.00 0.00 72 1012.5
20260506185132 25 360 6.4 16.1 0.00 0.00 0.00 71 1012.5
20260506185031 26 360 6.4 16.1 0.00 0.00 0.00 71 1012.5
20260506184932 26 360 8.0 16.1 0.00 0.00 0.00 70 1012.6
20260506184816 26 360 8.0 16.1 0.00 0.00 0.00 69 1012.6
20260506184716 26 32 8.0 16.1 0.00 0.00 0.00 70 1012.5
20260506184617 26 360 8.0 16.1 0.00 0.00 0.00 69 1012.5
20260506184517 26 360 8.0 16.1 0.00 0.00 0.00 70 1012.4
20260506184418 26 360 8.0 14.5 0.00 0.00 0.00 70 1012.4
20260506184319 26 360 8.0 14.5 0.00 0.00 0.00 69 1012.4
20260506184223 26 360 8.0 14.5 0.00 0.00 0.00 69 1012.4
20260506184123 26 360 6.4 14.5 0.00 0.00 0.00 70 1012.3
20260506184024 26 360 4.8 14.5 0.00 0.00 0.00 72 1012.3
20260506183924 26 360 4.8 12.9 0.00 0.00 0.00 72 1012.3
20260506183825 26 360 6.4 12.9 0.00 0.00 0.00 71 1012.3
20260506183745 26 360 6.4 12.9 0.00 0.00 0.00 71 1012.4
20260506183625 26 15 6.4 12.9 0.00 0.00 0.00 71 1012.3
20260506183529 26 360 6.4 12.9 0.00 0.00 0.00 72 1012.3
20260506183430 26 360 6.4 12.9 0.00 0.00 0.00 72 1012.3
20260506183351 26 360 6.4 12.9 0.00 0.00 0.00 72 1012.3
20260506183230 25 360 6.4 12.9 0.00 0.00 0.00 71 1012.2
20260506183130 26 360 6.4 12.9 0.00 0.00 0.00 71 1012.2
20260506183052 26 27 6.4 12.9 0.00 0.00 0.00 72 1012.2
20260506182951 26 360 4.8 12.9 0.00 0.00 0.00 72 1012.2
20260506182831 26 360 3.2 8.0 0.00 0.00 0.00 72 1012.2
20260506182755 26 360 3.2 8.0 0.00 0.00 0.00 72 1012.2
20260506182632 25 360 3.2 8.0 0.00 0.00 0.00 74 1012.3
20260506182553 25 360 3.2 9.7 0.00 0.00 0.00 74 1012.3
20260506182432 25 360 4.8 9.7 0.00 0.00 0.00 74 1012.3
20260506182332 25 360 4.8 9.7 0.00 0.00 0.00 74 1012.3
20260506182232 25 360 6.4 9.7 0.00 0.00 0.00 74 1012.3
20260506182132 24 360 6.4 9.7 0.00 0.00 0.00 74 1012.3
20260506182017 25 360 6.4 9.7 0.00 0.00 0.00 74 1012.4
20260506181918 25 360 6.4 9.7 0.00 0.00 0.00 74 1012.4
20260506181818 25 360 6.4 9.7 0.00 0.00 0.00 74 1012.4
20260506181718 25 360 6.4 9.7 0.00 0.00 0.00 74 1012.5
20260506181619 24 360 6.4 9.7 0.00 0.00 0.00 74 1012.5
20260506181519 25 360 4.8 12.9 0.00 0.00 0.00 74 1012.5
20260506181424 25 360 4.8 12.9 0.00 0.00 0.00 74 1012.5
20260506181325 25 360 4.8 12.9 0.00 0.00 0.00 75 1012.5
20260506181225 25 360 4.8 12.9 0.00 0.00 0.00 74 1012.5
20260506181146 24 360 4.8 9.7 0.00 0.00 0.00 74 1012.5
20260506181045 24 360 6.4 9.7 0.00 0.00 0.00 74 1012.5
20260506180925 24 360 6.4 9.7 0.00 0.00 0.00 75 1012.5
20260506180825 24 360 6.4 9.7 0.00 0.00 0.00 75 1012.4
20260506180725 24 360 6.4 9.7 0.00 0.00 0.00 75 1012.5
20260506180650 24 360 4.8 9.7 0.00 0.00 0.00 75 1012.5
20260506180530 24 360 4.8 9.7 0.00 0.00 0.00 75 1012.5
20260506180430 24 360 4.8 9.7 0.00 0.00 0.00 75 1012.5
20260506180331 24 360 4.8 9.7 0.00 0.00 0.00 75 1012.5
20260506180251 24 360 4.8 9.7 0.00 0.00 0.00 75 1012.4
20260506180131 23 360 4.8 12.9 0.00 0.00 0.00 75 1012.5
20260506180032 23 360 4.8 12.9 0.00 0.00 0.00 75 1012.5
20260506175952 23 46 6.4 12.9 0.00 0.00 0.00 75 1012.4
20260506175818 23 67 6.4 12.9 0.00 0.00 0.00 75 1012.4
20260506175717 23 360 6.4 12.9 0.00 0.00 0.00 75 1012.4
20260506175616 23 360 6.4 12.9 0.00 0.00 0.00 75 1012.4
20260506175517 23 360 6.4 12.9 0.00 0.00 0.00 74 1012.3
20260506175417 23 360 6.4 12.9 0.00 0.00 0.00 75 1012.4
20260506175318 23 360 6.4 12.9 0.00 0.00 0.00 74 1012.4
20260506175222 23 360 4.8 12.9 0.00 0.00 0.00 74 1012.4
20260506175124 24 360 4.8 12.9 0.00 0.00 0.00 74 1012.3
20260506175025 24 360 4.8 12.9 0.00 0.00 0.00 74 1012.4
20260506174924 24 360 3.2 9.7 0.00 0.00 0.00 75 1012.3
20260506174825 23 360 3.2 9.7 0.00 0.00 0.00 76 1012.4
20260506174726 23 360 1.6 9.7 0.00 0.00 0.00 77 1012.4
20260506174647 23 360 1.6 9.7 0.00 0.00 0.00 77 1012.4
20260506174529 23 360 3.2 9.7 0.00 0.00 0.00 79 1012.3
20260506174430 22 360 3.2 9.7 0.00 0.00 0.00 79 1012.4
20260506174332 22 360 4.8 9.7 0.00 0.00 0.00 79 1012.4
20260506174253 22 360 4.8 9.7 0.00 0.00 0.00 79 1012.4
20260506174132 22 360 6.4 9.7 0.00 0.00 0.00 79 1012.4
20260506174033 22 360 6.4 9.7 0.00 0.00 0.00 79 1012.4
20260506173934 22 80 6.4 9.7 0.00 0.00 0.00 79 1012.4
20260506173819 22 59 6.4 19.3 0.00 0.00 0.00 79 1012.4
20260506173739 22 360 6.4 19.3 0.00 0.00 0.00 80 1012.5
20260506173618 21 360 6.4 19.3 0.00 0.00 0.00 80 1012.5
20260506173517 21 360 4.8 19.3 0.00 0.00 0.00 80 1012.6
20260506173437 21 360 4.8 19.3 0.00 0.00 0.00 80 1012.6
20260506173317 21 360 6.4 19.3 0.00 0.00 0.00 79 1012.7
20260506173218 21 360 8.0 19.3 0.00 0.00 0.00 79 1012.7
20260506173118 21 360 8.0 19.3 0.00 0.00 0.00 78 1012.7
20260506173023 21 360 8.0 16.1 0.00 0.00 0.00 78 1012.7
20260506172922 22 360 8.0 12.9 0.00 0.00 0.00 78 1012.7
20260506172824 22 360 6.4 12.9 0.00 0.00 0.00 78 1012.6
20260506172723 22 360 4.8 12.9 0.00 0.00 0.00 78 1012.6
20260506172624 22 360 4.8 12.9 0.00 0.00 0.00 78 1012.6
20260506172525 22 360 4.8 12.9 0.00 0.00 0.00 79 1012.7
20260506172425 22 360 4.8 12.9 0.00 0.00 0.00 79 1012.6
20260506172330 22 360 3.2 12.9 0.00 0.00 0.00 79 1012.6
20260506172229 22 360 3.2 14.5 0.00 0.00 0.00 80 1012.6
20260506172131 21 360 1.6 14.5 0.00 0.00 0.00 81 1012.6
20260506172031 21 360 1.6 14.5 0.00 0.00 0.00 81 1012.6
20260506171932 21 360 3.2 14.5 0.00 0.00 0.00 82 1012.6
20260506171832 21 360 6.4 14.5 0.00 0.00 0.00 82 1012.7
20260506171716 20 360 6.4 14.5 0.00 0.00 0.00 81 1012.7
20260506171617 20 360 8.0 14.5 0.00 0.00 0.00 80 1012.7
20260506171518 20 360 6.4 14.5 0.00 0.00 0.00 80 1012.8
20260506171439 21 360 6.4 14.5 0.00 0.00 0.00 80 1012.8
20260506171318 20 360 6.4 14.5 0.00 0.00 0.00 81 1012.7
20260506171238 20 360 8.0 14.5 0.00 0.00 0.00 81 1012.8
20260506171137 20 360 8.0 14.5 0.00 0.00 0.00 81 1012.7
20260506171018 20 360 8.0 14.5 0.00 0.00 0.00 81 1012.7
20260506170943 20 360 8.0 14.5 0.00 0.00 0.00 81 1012.7
20260506170822 20 360 8.0 14.5 0.00 0.00 0.00 82 1012.6
20260506170743 20 360 8.0 14.5 0.00 0.00 0.00 82 1012.7
20260506170621 20 360 8.0 14.5 0.00 0.00 0.00 82 1012.7
20260506170542 20 360 8.0 14.5 0.00 0.00 0.00 82 1012.7
20260506170416 20 360 6.4 16.1 0.00 0.00 0.00 83 1012.8
20260506170317 20 360 6.4 16.1 0.00 0.00 0.00 83 1012.8
20260506170216 19 360 8.0 16.1 0.00 0.00 0.00 83 1012.8
20260506170121 19 69 8.0 16.1 0.00 0.00 0.00 82 1012.8
20260506170042 19 57 8.0 16.1 0.00 0.00 0.00 82 1012.9
20260506165921 20 360 6.4 16.1 0.00 0.00 0.00 82 1012.9
20260506165843 20 360 6.4 16.1 0.00 0.00 0.00 82 1012.9
20260506165716 20 360 8.0 16.1 0.00 0.00 0.00 83 1012.9
20260506165616 19 360 9.7 16.1 0.00 0.00 0.00 83 1012.9
20260506165517 19 360 9.7 17.7 0.00 0.00 0.00 82 1012.9
20260506165421 19 360 11.3 17.7 0.00 0.00 0.00 82 1012.9
20260506165322 19 360 9.7 17.7 0.00 0.00 0.00 82 1013.0
20260506165222 19 360 9.7 17.7 0.00 0.00 0.00 83 1012.9
20260506165123 19 360 8.0 19.3 0.00 0.00 0.00 83 1012.9
20260506165023 19 360 8.0 19.3 0.00 0.00 0.00 83 1013.0
20260506164924 19 360 6.4 22.5 0.00 0.00 0.00 83 1013.0
20260506164829 19 360 8.0 22.5 0.00 0.00 0.00 83 1013.0
20260506164730 19 360 9.7 22.5 0.00 0.00 0.00 82 1013.1
20260506164632 19 360 9.7 22.5 0.00 0.00 0.00 83 1013.0
20260506164532 19 360 11.3 22.5 0.00 0.00 0.00 83 1013.2
20260506164433 19 360 11.3 22.5 0.00 0.00 0.00 83 1013.2
20260506164334 19 360 12.9 22.5 0.00 0.00 0.00 83 1013.1
20260506164219 19 360 12.9 22.5 0.00 0.00 0.00 84 1013.1
20260506164119 19 360 12.9 22.5 0.00 0.00 0.00 84 1013.0
20260506164019 19 360 11.3 19.3 0.00 0.00 0.00 84 1013.0
20260506163919 19 360 11.3 19.3 0.00 0.00 0.00 84 1013.1
20260506163840 19 360 11.3 19.3 0.00 0.00 0.00 84 1013.1
20260506163719 19 360 12.9 19.3 0.00 0.00 0.00 84 1013.1
20260506163619 18 360 11.3 19.3 0.00 0.00 0.00 85 1013.1
20260506163521 18 360 11.3 19.3 0.00 0.00 0.00 85 1013.2
20260506163424 18 360 11.3 22.5 0.00 0.00 0.00 85 1013.2
20260506163325 18 360 9.7 33.8 0.00 0.00 0.00 85 1013.3
20260506163225 18 360 9.7 33.8 0.00 0.00 0.00 85 1013.2
20260506163126 18 360 9.7 33.8 0.00 0.00 0.00 85 1013.2
20260506163027 18 360 9.7 33.8 0.00 0.00 0.00 85 1013.3
20260506162927 18 360 9.7 33.8 0.00 0.00 0.00 85 1013.4
20260506162826 18 360 11.3 33.8 0.00 0.00 0.00 85 1013.4
20260506162731 18 360 12.9 33.8 0.00 0.00 0.00 85 1013.4
20260506162629 18 360 16.1 33.8 0.00 0.00 0.00 85 1013.5
20260506162530 18 360 17.7 33.8 0.00 0.00 0.00 85 1013.7
20260506162431 18 360 19.3 33.8 0.00 0.00 0.00 85 1013.7
20260506162331 18 360 19.3 33.8 0.00 0.00 0.00 85 1013.8
20260506162232 18 360 17.7 33.8 0.00 0.00 0.00 84 1013.9
20260506162133 18 360 17.7 38.6 0.00 0.00 0.00 84 1014.0
20260506162016 18 360 16.1 38.6 0.00 0.00 0.00 85 1014.0
20260506161917 18 360 16.1 38.6 0.00 0.00 0.00 85 1014.1
20260506161818 18 360 17.7 41.8 0.00 0.00 0.00 85 1014.1
20260506161738 18 360 17.7 41.8 0.00 0.00 0.00 85 1014.1
20260506161617 18 360 17.7 41.8 0.00 0.00 0.00 85 1014.2
20260506161517 18 360 19.3 41.8 0.00 0.00 0.00 85 1014.2
20260506161418 18 360 20.9 41.8 0.00 0.00 0.00 84 1014.2
20260506161322 19 360 22.5 41.8 0.00 0.00 0.00 84 1014.2
20260506161222 19 360 22.5 41.8 0.00 0.00 0.00 84 1014.3
20260506161123 19 360 22.5 41.8 0.00 0.00 0.00 84 1014.4
20260506161022 19 360 22.5 41.8 0.00 0.00 0.00 84 1014.4
20260506160922 19 360 20.9 41.8 0.00 0.00 0.00 84 1014.4
20260506160821 19 360 20.9 41.8 0.00 0.00 0.00 84 1014.4
20260506160722 20 360 19.3 29.0 0.00 0.00 0.00 84 1014.4
20260506160623 20 360 19.3 29.0 0.00 0.00 0.00 84 1014.3
20260506160527 20 360 17.7 29.0 0.00 0.00 0.00 84 1014.3
20260506160427 20 360 16.1 30.6 0.00 0.00 0.00 84 1014.2
20260506160327 20 360 16.1 30.6 0.00 0.00 0.00 84 1014.1
20260506160225 20 360 16.1 30.6 0.00 0.00 0.00 84 1013.8
20260506160126 20 360 16.1 30.6 0.00 0.00 0.00 84 1013.8
20260506160046 20 360 19.3 35.4 0.00 0.00 0.00 84 1013.4
20260506155926 20 360 19.3 35.4 0.00 0.00 0.00 84 1013.4
20260506155830 20 360 20.9 35.4 0.00 0.00 0.00 83 1013.3
20260506155751 20 360 20.9 35.4 0.00 0.00 0.00 83 1013.3
20260506155631 20 360 19.3 35.4 0.00 0.00 0.00 83 1013.3
20260506155530 20 360 20.9 35.4 0.00 0.00 0.00 83 1013.3
20260506155430 20 360 19.3 35.4 0.00 0.00 0.00 83 1013.4
20260506155331 20 360 19.3 35.4 0.00 0.00 0.00 83 1013.5
20260506155231 21 360 19.3 35.4 0.00 0.00 0.00 82 1013.5
20260506155135 21 360 17.7 29.0 0.00 0.00 0.00 82 1013.4
20260506155035 21 360 16.1 25.7 0.00 0.00 0.00 82 1013.5
20260506154936 21 360 12.9 22.5 0.00 0.00 0.00 82 1013.4
20260506154856 21 360 12.9 22.5 0.00 0.00 0.00 82 1013.4
20260506154733 21 360 12.9 22.5 0.00 0.00 0.00 82 1013.4
20260506154634 22 360 14.5 22.5 0.00 0.00 0.00 82 1013.3
20260506154518 22 360 14.5 22.5 0.00 0.00 0.00 81 1013.0
20260506154419 22 360 16.1 22.5 0.00 0.00 0.00 81 1013.0
20260506154319 22 360 16.1 22.5 0.00 0.00 0.00 80 1012.9
20260506154239 22 360 14.5 20.9 0.00 0.00 0.00 80 1012.8
20260506154118 23 360 14.5 20.9 0.00 0.00 0.00 80 1012.7
20260506154019 23 360 14.5 20.9 0.00 0.00 0.00 80 1012.8
20260506153919 23 360 12.9 20.9 0.00 0.00 0.00 80 1012.7
20260506153823 24 360 11.3 20.9 0.00 0.00 0.00 82 1012.8
20260506153722 25 360 9.7 20.9 0.00 0.00 0.00 84 1012.8
20260506153642 25 360 6.4 16.1 0.00 0.00 0.00 84 1012.7
20260506153522 25 360 4.8 12.9 0.00 0.00 0.00 85 1012.7
20260506153442 25 360 3.2 6.4 0.00 0.00 0.00 85 1012.7
20260506153322 25 360 1.6 6.4 0.00 0.00 0.00 85 1012.7
20260506153223 25 360 1.6 6.4 0.00 0.00 0.00 85 1012.7
20260506153123 25 149 1.6 6.4 0.00 0.00 0.00 85 1012.7
20260506153027 25 360 0.0 4.8 0.00 0.00 0.00 85 1012.7
20260506152927 25 360 0.0 4.8 0.00 0.00 0.00 85 1012.6
20260506152849 25 360 1.6 4.8 0.00 0.00 0.00 85 1012.6
20260506152725 25 360 1.6 4.8 0.00 0.00 0.00 85 1012.6
20260506152626 25 360 1.6 4.8 0.00 0.00 0.00 85 1012.6
20260506152525 25 360 3.2 4.8 0.00 0.00 0.00 85 1012.5
20260506152426 25 360 3.2 4.8 0.00 0.00 0.00 85 1012.5
20260506152325 25 360 3.2 4.8 0.00 0.00 0.00 85 1012.3
20260506152230 25 360 1.6 4.8 0.00 0.00 0.00 85 1012.3
20260506152131 25 360 1.6 4.8 0.00 0.00 0.00 85 1012.3
20260506152031 25 360 1.6 4.8 0.00 0.00 0.00 85 1012.1
20260506151931 25 360 1.6 4.8 0.00 0.00 0.00 85 1012.1
20260506151831 25 360 1.6 4.8 0.00 0.00 0.00 85 1012.0
20260506151732 25 360 1.6 6.4 0.00 0.00 0.00 85 1012.0
20260506151633 25 360 3.2 6.4 0.00 0.00 0.00 85 1012.0
20260506151558 25 360 3.2 6.4 0.00 0.00 0.00 85 1012.0
20260506151457 25 360 3.2 6.4 0.00 0.00 0.00 85 1012.1
20260506151316 25 360 3.2 6.4 0.00 0.00 0.00 85 1012.2
20260506151217 25 360 3.2 6.4 0.00 0.00 0.00 85 1012.2
20260506151118 25 360 3.2 6.4 0.00 0.00 0.00 85 1012.2
20260506151018 25 360 4.8 6.4 0.00 0.00 0.00 85 1012.1
20260506150918 25 360 4.8 6.4 0.00 0.00 0.00 85 1012.1
20260506150843 25 360 3.2 6.4 0.00 0.00 0.00 85 1012.0
20260506150722 25 360 1.6 6.4 0.00 0.00 0.00 85 1012.0
20260506150622 25 360 1.6 8.0 0.00 0.00 0.00 85 1011.9
20260506150521 25 360 0.0 8.0 0.00 0.00 0.00 85 1012.0
20260506150442 25 360 1.6 8.0 0.00 0.00 0.00 85 1012.0
20260506150321 25 360 1.6 8.0 0.00 0.00 0.00 85 1011.9
20260506150221 25 360 3.2 8.0 0.00 0.00 0.00 85 1011.9
20260506150123 25 360 3.2 12.9 0.00 0.00 0.00 85 1011.9
20260506150027 25 360 4.8 12.9 0.00 0.00 0.00 85 1011.9
20260506145928 25 360 4.8 12.9 0.00 0.00 0.00 85 1011.9
20260506145829 24 360 4.8 12.9 0.00 0.00 0.00 85 1011.9
20260506145731 24 360 4.8 12.9 0.00 0.00 0.00 85 1011.9
20260506145630 24 360 4.8 12.9 0.00 0.00 0.00 85 1011.8
20260506145528 25 360 6.4 12.9 0.00 0.00 0.00 85 1011.8
20260506145429 25 360 8.0 12.9 0.00 0.00 0.00 85 1011.7
20260506145334 25 360 8.0 12.9 0.00 0.00 0.00 85 1011.7
20260506145233 25 360 8.0 12.9 0.00 0.00 0.00 85 1011.7
20260506145133 25 360 8.0 12.9 0.00 0.00 0.00 85 1011.6
20260506145034 25 360 6.4 12.9 0.00 0.00 0.00 85 1011.6
20260506144934 25 360 8.0 12.9 0.00 0.00 0.00 85 1011.6
20260506144835 25 360 6.4 12.9 0.00 0.00 0.00 85 1011.6
20260506144719 25 360 6.4 12.9 0.00 0.00 0.00 85 1011.4
20260506144619 25 360 6.4 12.9 0.00 0.00 0.00 85 1011.4
20260506144518 25 360 6.4 12.9 0.00 0.00 0.00 85 1011.4
20260506144418 25 360 8.0 12.9 0.00 0.00 0.00 85 1011.4
20260506144319 25 360 8.0 12.9 0.00 0.00 0.00 85 1011.5
20260506144218 25 360 8.0 12.9 0.00 0.00 0.00 85 1011.4
20260506144119 25 360 8.0 12.9 0.00 0.00 0.00 85 1011.5
20260506144039 24 360 8.0 12.9 0.00 0.00 0.00 85 1011.5
20260506143923 24 360 6.4 12.9 0.00 0.00 0.00 85 1011.4
20260506143823 24 360 6.4 12.9 0.00 0.00 0.00 85 1011.3
20260506143744 24 360 4.8 9.7 0.00 0.00 0.00 85 1011.3
20260506143623 25 360 3.2 9.7 0.00 0.00 0.00 85 1011.4
20260506143523 25 360 1.6 9.7 0.00 0.00 0.00 85 1011.5
20260506143444 25 360 1.6 8.0 0.00 0.00 0.00 86 1011.5
20260506143324 25 360 3.2 8.0 0.00 0.00 0.00 86 1011.4
20260506143228 25 360 3.2 8.0 0.00 0.00 0.00 86 1011.4
20260506143130 25 360 3.2 8.0 0.00 0.00 0.00 86 1011.4
20260506143030 25 360 1.6 8.0 0.00 0.00 0.00 86 1011.3
20260506142931 25 360 1.6 8.0 0.00 0.00 0.00 86 1011.2
20260506142852 24 360 1.6 8.0 0.00 0.00 0.00 86 1011.3
20260506142734 24 360 3.2 8.0 0.00 0.00 0.00 86 1011.2
20260506142632 24 360 3.2 8.0 0.00 0.00 0.00 86 1011.2
20260506142552 24 360 4.8 14.5 0.00 0.00 0.00 86 1011.2
20260506142435 24 360 4.8 14.5 0.00 0.00 0.00 87 1011.1
20260506142334 24 360 4.8 14.5 0.00 0.00 0.00 87 1011.1
20260506142235 24 360 4.8 14.5 0.00 0.00 0.00 87 1011.0
20260506142134 24 360 6.4 14.5 0.00 0.00 0.00 86 1010.9
20260506142035 24 360 6.4 14.5 0.00 0.00 0.00 86 1010.9
20260506141955 24 360 8.0 14.5 0.00 0.00 0.00 86 1010.9
20260506141834 24 360 8.0 14.5 0.00 0.00 0.00 86 1010.8
20260506141718 24 360 8.0 14.5 0.00 0.00 0.00 86 1010.8
20260506141619 24 360 9.7 14.5 0.00 0.00 0.00 86 1010.9
20260506141519 24 360 9.7 12.9 0.00 0.00 0.00 86 1010.9
20260506141420 24 360 9.7 12.9 0.00 0.00 0.00 86 1011.0
20260506141321 24 360 9.7 12.9 0.00 0.00 0.00 86 1011.0
20260506141223 24 360 8.0 12.9 0.00 0.00 0.00 86 1011.1
20260506141124 24 360 8.0 12.9 0.00 0.00 0.00 86 1011.2
20260506141027 24 360 6.4 9.7 0.00 0.00 0.00 86 1011.2
20260506140928 24 360 4.8 8.0 0.00 0.00 0.00 87 1011.3
20260506140827 24 360 4.8 8.0 0.00 0.00 0.00 87 1011.2
20260506140726 24 360 4.8 8.0 0.00 0.00 0.00 87 1011.3
20260506140626 24 360 4.8 8.0 0.00 0.00 0.00 87 1011.3
20260506140527 24 360 4.8 8.0 0.00 0.00 0.00 87 1011.3
20260506140427 24 360 4.8 8.0 0.00 0.00 0.00 87 1011.4
20260506140347 24 360 4.8 8.0 0.00 0.00 0.00 87 1011.4
20260506140251 24 360 4.8 8.0 0.00 0.00 0.00 87 1011.5
20260506140130 24 360 3.2 8.0 0.00 0.00 0.00 87 1011.5
20260506140030 24 360 3.2 8.0 0.00 0.00 0.00 87 1011.5
20260506135931 24 360 3.2 12.9 0.00 0.00 0.00 87 1011.4
20260506135832 24 360 3.2 12.9 0.00 0.00 0.00 87 1011.4
20260506135733 24 360 3.2 12.9 0.00 0.00 0.00 87 1011.5
20260506135618 24 360 3.2 12.9 0.00 0.00 0.00 87 1011.4
20260506135518 24 360 3.2 14.5 0.00 0.00 0.00 87 1011.4
20260506135418 24 360 3.2 14.5 0.00 0.00 0.00 87 1011.2
20260506135319 24 360 4.8 17.7 0.00 0.00 0.00 87 1011.2
20260506135218 24 360 6.4 17.7 0.00 0.00 0.00 87 1011.2
20260506135139 24 360 8.0 17.7 0.00 0.00 0.00 87 1011.1
20260506135017 24 360 8.0 17.7 0.00 0.00 0.00 87 1011.0
20260506134917 24 360 8.0 17.7 0.00 0.00 0.00 87 1010.9
20260506134822 24 360 9.7 17.7 0.00 0.00 0.00 87 1010.8
20260506134721 24 360 11.3 17.7 0.00 0.00 0.00 87 1010.7
20260506134623 23 360 11.3 17.7 0.00 0.00 0.00 87 1010.6
20260506134523 23 360 12.9 17.7 0.00 0.00 0.00 87 1010.6
20260506134444 23 360 12.9 17.7 0.00 0.00 0.00 87 1010.6
20260506134323 23 360 11.3 17.7 0.00 0.00 0.00 87 1010.6
20260506134244 23 360 9.7 17.7 0.00 0.00 0.00 87 1010.6
20260506134127 23 360 8.0 17.7 0.00 0.00 0.00 87 1010.6
20260506134027 23 360 6.4 14.5 0.00 0.00 0.00 88 1010.7
20260506133948 23 360 6.4 12.9 0.00 0.00 0.00 88 1010.7
20260506133829 23 360 6.4 14.5 0.00 0.00 0.00 88 1010.7
20260506133730 23 360 8.0 14.5 0.00 0.00 0.00 88 1010.7
20260506133630 23 360 8.0 14.5 0.00 0.00 0.00 88 1010.6
20260506133527 23 360 8.0 14.5 0.00 0.00 0.00 88 1010.7
20260506133448 23 360 6.4 14.5 0.00 0.00 0.00 88 1010.6
20260506133331 23 360 6.4 14.5 0.00 0.00 0.00 88 1010.6
20260506133232 23 360 6.4 14.5 0.00 0.00 0.00 88 1010.6
20260506133133 23 360 8.0 14.5 0.00 0.00 0.00 88 1010.6
20260506133032 23 360 8.0 14.5 0.00 0.00 0.00 88 1010.7
20260506132933 23 360 8.0 14.5 0.00 0.00 0.00 88 1010.6
20260506132835 23 360 8.0 14.5 0.00 0.00 0.00 88 1010.6
20260506132719 23 360 9.7 14.5 0.00 0.00 0.00 88 1010.6
20260506132619 23 360 8.0 14.5 0.00 0.00 0.00 88 1010.6
20260506132520 23 360 8.0 14.5 0.00 0.00 0.00 88 1010.6
20260506132421 23 360 8.0 14.5 0.00 0.00 0.00 88 1010.5
20260506132342 23 360 8.0 14.5 0.00 0.00 0.00 88 1010.5
20260506132221 23 360 8.0 14.5 0.00 0.00 0.00 88 1010.5
20260506132122 23 360 8.0 14.5 0.00 0.00 0.00 88 1010.5
20260506132027 23 360 8.0 14.5 0.00 0.00 0.00 89 1010.5
20260506131927 23 360 6.4 8.0 0.00 0.00 0.00 89 1010.5
20260506131827 23 360 6.4 14.5 0.00 0.00 0.00 89 1010.4
20260506131727 23 360 4.8 20.9 0.00 0.00 0.00 89 1010.5
20260506131648 23 360 4.8 20.9 0.00 0.00 0.00 89 1010.5
20260506131528 23 360 4.8 20.9 0.00 0.00 0.00 89 1010.5
20260506131428 23 360 4.8 20.9 0.00 0.00 0.00 89 1010.6
20260506131332 23 360 6.4 20.9 0.00 0.00 0.00 89 1010.5
20260506131253 23 360 9.7 20.9 0.00 0.00 0.00 89 1010.6
20260506131152 23 360 11.3 20.9 0.00 0.00 0.00 89 1010.5
20260506131031 23 360 12.9 20.9 0.00 0.00 0.00 89 1010.4
20260506130932 23 360 12.9 19.3 0.00 0.00 0.00 89 1010.5
20260506130833 23 360 9.7 17.7 0.00 0.00 0.00 89 1010.4
20260506130734 23 360 8.0 16.1 0.00 0.00 0.00 89 1010.4
20260506130619 23 360 6.4 12.9 0.00 0.00 0.00 89 1010.4
20260506130519 23 360 4.8 12.9 0.00 0.00 0.00 89 1010.5
20260506130419 23 360 6.4 14.5 0.00 0.00 0.00 89 1010.4
20260506130320 23 360 4.8 14.5 0.00 0.00 0.00 89 1010.5
20260506130220 23 360 6.4 14.5 0.00 0.00 0.00 89 1010.4
20260506130121 23 360 6.4 14.5 0.00 0.00 0.00 89 1010.4
20260506130021 23 360 6.4 14.5 0.00 0.00 0.00 89 1010.4
20260506125925 23 360 6.4 14.5 0.00 0.00 0.00 89 1010.4
20260506125826 23 360 6.4 14.5 0.00 0.00 0.00 89 1010.4
20260506125728 23 360 6.4 14.5 0.00 0.00 0.00 90 1010.4
20260506125628 23 360 6.4 14.5 0.00 0.00 0.00 90 1010.3
20260506125527 23 360 6.4 12.9 0.00 0.00 0.00 90 1010.3
20260506125427 23 360 4.8 12.9 0.00 0.00 0.00 90 1010.3
20260506125332 23 360 4.8 12.9 0.00 0.00 0.00 90 1010.1
20260506125232 23 360 6.4 12.9 0.00 0.00 0.00 90 1010.2
20260506125133 23 360 6.4 12.9 0.00 0.00 0.00 90 1010.2
20260506125053 23 360 6.4 12.9 0.00 0.00 0.00 90 1010.2
20260506124932 23 360 6.4 12.9 0.00 0.00 0.00 90 1010.2
20260506124832 23 360 6.4 12.9 0.00 0.00 0.00 90 1010.2
20260506124733 23 360 6.4 12.9 0.00 0.00 0.00 90 1010.2
20260506124617 23 360 4.8 9.7 0.00 0.00 0.00 90 1010.2
20260506124517 23 360 4.8 9.7 0.00 0.00 0.00 90 1010.2
20260506124437 23 360 3.2 6.4 0.00 0.00 0.00 90 1010.2
20260506124317 23 360 3.2 6.4 0.00 0.00 0.00 90 1010.1
20260506124238 23 360 3.2 6.4 0.00 0.00 0.00 90 1010.1
20260506124117 23 360 3.2 6.4 0.00 0.00 0.00 90 1010.2
20260506124017 23 360 3.2 6.4 0.00 0.00 0.00 90 1010.1
20260506123938 23 360 3.2 6.4 0.00 0.00 0.00 90 1010.1
20260506123822 23 360 3.2 6.4 0.00 0.00 0.00 90 1010.2
20260506123722 23 360 3.2 6.4 0.00 0.00 0.00 90 1010.3
20260506123643 23 360 3.2 6.4 0.00 0.00 0.00 90 1010.3
20260506123521 23 360 4.8 6.4 0.00 0.00 0.00 89 1010.3
20260506123442 23 360 3.2 6.4 0.00 0.00 0.00 89 1010.3
20260506123322 23 360 4.8 6.4 0.00 0.00 0.00 89 1010.4
20260506123242 23 360 4.8 6.4 0.00 0.00 0.00 89 1010.4
20260506123116 23 360 4.8 6.4 0.00 0.00 0.00 89 1010.3
20260506123041 23 360 4.8 6.4 0.00 0.00 0.00 89 1010.3
20260506122919 23 360 3.2 6.4 0.00 0.00 0.00 89 1010.2
20260506122821 23 360 3.2 6.4 0.00 0.00 0.00 89 1010.2
20260506122722 23 360 3.2 6.4 0.00 0.00 0.00 89 1010.2
20260506122642 23 360 3.2 6.4 0.00 0.00 0.00 89 1010.2
20260506122516 23 360 1.6 4.8 0.00 0.00 0.00 89 1010.2
20260506122417 23 360 1.6 4.8 0.00 0.00 0.00 89 1010.2
20260506122322 23 360 1.6 4.8 0.00 0.00 0.00 89 1010.2
20260506122222 23 360 1.6 4.8 0.00 0.00 0.00 89 1010.3
20260506122122 23 360 1.6 4.8 0.00 0.00 0.00 89 1010.3
20260506122042 23 360 1.6 4.8 0.00 0.00 0.00 89 1010.3
20260506121922 23 360 1.6 4.8 0.00 0.00 0.00 89 1010.2
20260506121844 23 360 1.6 4.8 0.00 0.00 0.00 89 1010.2
20260506121724 23 360 1.6 4.8 0.00 0.00 0.00 89 1010.2
20260506121624 23 360 3.2 4.8 0.00 0.00 0.00 89 1010.3
20260506121549 23 360 3.2 4.8 0.00 0.00 0.00 89 1010.3
20260506121428 23 360 3.2 4.8 0.00 0.00 0.00 89 1010.3
20260506121328 23 360 3.2 4.8 0.00 0.00 0.00 89 1010.3
20260506121229 23 360 3.2 4.8 0.00 0.00 0.00 89 1010.3
20260506121129 23 360 3.2 4.8 0.00 0.00 0.00 89 1010.3
20260506121049 23 360 1.6 4.8 0.00 0.00 0.00 89 1010.3
20260506120928 23 360 1.6 4.8 0.00 0.00 0.00 89 1010.3
20260506120849 23 360 1.6 3.2 0.00 0.00 0.00 89 1010.3
20260506120753 23 360 1.6 3.2 0.00 0.00 0.00 89 1010.3
20260506120652 23 360 0.0 3.2 0.00 0.00 0.00 89 1010.2
20260506120532 23 360 0.0 3.2 0.00 0.00 0.00 89 1010.3
20260506120432 23 360 0.0 3.2 0.00 0.00 0.00 89 1010.2
20260506120333 23 360 0.0 3.2 0.00 0.00 0.00 88 1010.3
20260506120234 23 360 0.0 6.4 0.00 0.00 0.00 88 1010.3
20260506120155 23 360 0.0 6.4 0.00 0.00 0.00 88 1010.2
20260506120055 23 360 0.0 6.4 0.00 0.00 0.00 88 1010.2
20260506115918 23 360 1.6 6.4 0.00 0.00 0.00 88 1010.2
20260506115819 23 360 1.6 6.4 0.00 0.00 0.00 88 1010.1
20260506115718 23 360 1.6 6.4 0.00 0.00 0.00 88 1010.1
20260506115619 23 360 3.2 6.4 0.00 0.00 0.00 88 1010.1
20260506115520 23 360 3.2 6.4 0.00 0.00 0.00 88 1010.1
20260506115420 23 360 3.2 6.4 0.00 0.00 0.00 88 1010.1
20260506115320 23 360 3.2 6.4 0.00 0.00 0.00 88 1010.1
20260506115225 23 360 4.8 6.4 0.00 0.00 0.00 88 1010.1
20260506115125 23 360 4.8 6.4 0.00 0.00 0.00 88 1010.1
20260506115025 23 360 4.8 6.4 0.00 0.00 0.00 88 1010.1
20260506114927 23 360 4.8 6.4 0.00 0.00 0.00 88 1010.1
20260506114848 23 360 3.2 6.4 0.00 0.00 0.00 88 1010.1
20260506114748 23 360 3.2 6.4 0.00 0.00 0.00 88 1010.1
20260506114626 23 360 1.6 6.4 0.00 0.00 0.00 88 1010.1
20260506114531 23 360 1.6 6.4 0.00 0.00 0.00 88 1010.1
20260506114432 23 360 0.0 4.8 0.00 0.00 0.00 88 1010.0
20260506114331 23 360 0.0 0.0 0.00 0.00 0.00 88 1010.1
20260506114233 23 360 0.0 0.0 0.00 0.00 0.00 88 1010.2
20260506114153 23 360 0.0 0.0 0.00 0.00 0.00 88 1010.1
20260506114053 23 360 0.0 0.0 0.00 0.00 0.00 88 1010.1
20260506113953 23 360 0.0 4.8 0.00 0.00 0.00 88 1010.1
20260506113832 23 360 0.0 4.8 0.00 0.00 0.00 88 1010.1
20260506113717 23 360 0.0 4.8 0.00 0.00 0.00 88 1010.1
20260506113618 23 360 0.0 4.8 0.00 0.00 0.00 88 1010.1
20260506113519 23 360 0.0 4.8 0.00 0.00 0.00 88 1010.1
20260506113420 23 360 0.0 4.8 0.00 0.00 0.00 88 1010.3
20260506113319 23 360 0.0 4.8 0.00 0.00 0.00 88 1010.3
20260506113219 23 360 0.0 4.8 0.00 0.00 0.00 88 1010.2
20260506113140 23 360 0.0 4.8 0.00 0.00 0.00 88 1010.1
20260506113024 23 360 0.0 4.8 0.00 0.00 0.00 88 1010.2
20260506112924 23 360 0.0 4.8 0.00 0.00 0.00 88 1010.2
20260506112826 23 360 0.0 4.8 0.00 0.00 0.00 88 1010.2
20260506112725 23 360 1.6 4.8 0.00 0.00 0.00 88 1010.1
20260506112646 23 360 1.6 4.8 0.00 0.00 0.00 88 1010.2
20260506112527 23 360 1.6 4.8 0.00 0.00 0.00 88 1010.1
20260506112428 23 360 1.6 4.8 0.00 0.00 0.00 88 1010.2
20260506112332 23 360 1.6 4.8 0.00 0.00 0.00 88 1010.1
20260506112233 23 360 3.2 4.8 0.00 0.00 0.00 88 1010.2
20260506112133 23 360 3.2 6.4 0.00 0.00 0.00 88 1010.2
20260506112034 23 360 3.2 6.4 0.00 0.00 0.00 88 1010.2
20260506111935 23 360 3.2 6.4 0.00 0.00 0.00 88 1010.1
20260506111835 23 360 3.2 4.8 0.00 0.00 0.00 88 1010.1
20260506111720 23 360 1.6 4.8 0.00 0.00 0.00 88 1010.2
20260506111621 23 360 1.6 4.8 0.00 0.00 0.00 88 1010.2
20260506111522 23 360 1.6 4.8 0.00 0.00 0.00 88 1010.2
20260506111423 23 360 1.6 4.8 0.00 0.00 0.00 88 1010.2
20260506111319 23 360 1.6 4.8 0.00 0.00 0.00 88 1010.3
20260506111219 23 360 1.6 4.8 0.00 0.00 0.00 88 1010.2
20260506111120 23 360 1.6 4.8 0.00 0.00 0.00 88 1010.2
20260506111025 23 360 1.6 4.8 0.00 0.00 0.00 88 1010.2
20260506110925 23 360 1.6 4.8 0.00 0.00 0.00 88 1010.1
20260506110825 23 360 3.2 4.8 0.00 0.00 0.00 88 1010.1
20260506110727 23 360 3.2 4.8 0.00 0.00 0.00 88 1010.0
20260506110627 23 360 3.2 4.8 0.00 0.00 0.00 88 1010.1
20260506110528 23 360 3.2 6.4 0.00 0.00 0.00 88 1010.0
20260506110448 23 360 3.2 8.0 0.00 0.00 0.00 88 1010.0
20260506110331 23 360 3.2 8.0 0.00 0.00 0.00 88 1010.1
20260506110232 23 360 3.2 8.0 0.00 0.00 0.00 88 1010.1
20260506110133 23 360 3.2 8.0 0.00 0.00 0.00 88 1010.0
20260506110034 23 360 3.2 8.0 0.00 0.00 0.00 88 1010.1
20260506105955 23 360 3.2 8.0 0.00 0.00 0.00 88 1010.0
20260506105833 23 360 3.2 8.0 0.00 0.00 0.00 88 1010.1
20260506105754 23 360 3.2 8.0 0.00 0.00 0.00 88 1010.0
20260506105633 23 360 3.2 8.0 0.00 0.00 0.00 88 1010.0
20260506105518 23 360 3.2 8.0 0.00 0.00 0.00 88 1010.1
20260506105438 23 360 3.2 9.7 0.00 0.00 0.00 88 1010.1
20260506105318 23 360 3.2 9.7 0.00 0.00 0.00 88 1010.0
20260506105238 23 360 3.2 9.7 0.00 0.00 0.00 88 1010.0
20260506105117 23 360 4.8 9.7 0.00 0.00 0.00 88 1010.1
20260506105017 23 360 4.8 9.7 0.00 0.00 0.00 88 1010.1
20260506104937 23 360 4.8 9.7 0.00 0.00 0.00 88 1010.0
20260506104816 23 360 4.8 9.7 0.00 0.00 0.00 88 1010.0
20260506104721 23 360 4.8 9.7 0.00 0.00 0.00 88 1010.0
20260506104622 23 360 4.8 9.7 0.00 0.00 0.00 88 1009.9
20260506104523 23 360 4.8 9.7 0.00 0.00 0.00 88 1009.9
20260506104424 23 360 4.8 8.0 0.00 0.00 0.00 88 1009.9
20260506104324 23 360 3.2 8.0 0.00 0.00 0.00 88 1009.9
20260506104225 23 360 3.2 8.0 0.00 0.00 0.00 88 1009.9
20260506104130 23 360 3.2 8.0 0.00 0.00 0.00 88 1009.9
20260506104031 23 360 3.2 8.0 0.00 0.00 0.00 88 1009.9
20260506103931 23 360 3.2 14.5 0.00 0.00 0.00 88 1009.9
20260506103851 23 360 3.2 14.5 0.00 0.00 0.00 88 1009.9
20260506103730 23 360 3.2 14.5 0.00 0.00 0.00 88 1009.9
20260506103631 23 360 4.8 14.5 0.00 0.00 0.00 88 1009.9
20260506103531 23 360 3.2 12.9 0.00 0.00 0.00 88 1009.9
20260506103452 23 360 3.2 12.9 0.00 0.00 0.00 88 1009.9
20260506103336 23 360 3.2 12.9 0.00 0.00 0.00 88 1009.8
20260506103216 23 360 3.2 12.9 0.00 0.00 0.00 88 1009.8
20260506103116 23 360 3.2 12.9 0.00 0.00 0.00 88 1009.7
20260506103037 23 360 3.2 9.7 0.00 0.00 0.00 88 1009.7
20260506102958 23 360 3.2 6.4 0.00 0.00 0.00 88 1009.7
20260506102837 23 360 3.2 6.4 0.00 0.00 0.00 88 1009.7
20260506102716 23 360 3.2 6.4 0.00 0.00 0.00 88 1009.6
20260506102641 23 360 1.6 6.4 0.00 0.00 0.00 88 1009.7
20260506102520 23 360 1.6 6.4 0.00 0.00 0.00 88 1009.7
20260506102422 23 360 1.6 12.9 0.00 0.00 0.00 88 1009.7
20260506102323 23 360 1.6 14.5 0.00 0.00 0.00 88 1009.7
20260506102223 23 360 1.6 14.5 0.00 0.00 0.00 88 1009.7
20260506102124 23 360 3.2 16.1 0.00 0.00 0.00 88 1009.6
20260506102024 23 360 3.2 16.1 0.00 0.00 0.00 88 1009.6
20260506101929 23 360 3.2 16.1 0.00 0.00 0.00 88 1009.6
20260506101829 23 360 4.8 16.1 0.00 0.00 0.00 88 1009.6
20260506101729 23 360 8.0 16.1 0.00 0.00 0.00 88 1009.6
20260506101629 23 360 8.0 16.1 0.00 0.00 0.00 88 1009.5
20260506101529 23 360 6.4 16.1 0.00 0.00 0.00 88 1009.6
20260506101430 23 360 6.4 16.1 0.00 0.00 0.00 88 1009.5
20260506101332 23 360 6.4 16.1 0.00 0.00 0.00 88 1009.5
20260506101216 23 360 3.2 19.3 0.00 0.00 0.00 88 1009.5
20260506101116 23 360 3.2 19.3 0.00 0.00 0.00 88 1009.4
20260506101017 23 360 3.2 19.3 0.00 0.00 0.00 88 1009.4
20260506100918 23 360 4.8 19.3 0.00 0.00 0.00 88 1009.5
20260506100838 23 360 6.4 19.3 0.00 0.00 0.00 88 1009.4
20260506100718 23 360 6.4 19.3 0.00 0.00 0.00 88 1009.4
20260506100617 23 360 6.4 19.3 0.00 0.00 0.00 88 1009.4
20260506100523 23 360 6.4 19.3 0.00 0.00 0.00 88 1009.4
20260506100444 23 360 6.4 19.3 0.00 0.00 0.00 88 1009.4
20260506100324 23 360 6.4 20.9 0.00 0.00 0.00 88 1009.4
20260506100245 23 360 6.4 20.9 0.00 0.00 0.00 88 1009.4
20260506100123 23 360 6.4 20.9 0.00 0.00 0.00 88 1009.3
20260506100024 23 360 6.4 20.9 0.00 0.00 0.00 88 1009.3
20260506095925 23 360 6.4 20.9 0.00 0.00 0.00 88 1009.3
20260506095829 23 360 8.0 20.9 0.00 0.00 0.00 88 1009.4
20260506095731 23 360 8.0 20.9 0.00 0.00 0.00 88 1009.3
20260506095630 23 360 8.0 20.9 0.00 0.00 0.00 88 1009.2
20260506095530 23 360 8.0 20.9 0.00 0.00 0.00 88 1009.4
20260506095431 23 360 9.7 20.9 0.00 0.00 0.00 88 1009.3
20260506095332 23 360 11.3 20.9 0.00 0.00 0.00 88 1009.2
20260506095232 23 360 9.7 20.9 0.00 0.00 0.00 88 1009.2
20260506095116 23 360 9.7 27.4 0.00 0.00 0.00 88 1009.2
20260506095017 23 360 8.0 27.4 0.00 0.00 0.00 88 1009.2
20260506094919 23 360 8.0 27.4 0.00 0.00 0.00 88 1009.2
20260506094819 23 360 8.0 27.4 0.00 0.00 0.00 88 1009.2
20260506094719 23 360 6.4 27.4 0.00 0.00 0.00 88 1009.2
20260506094619 23 360 6.4 27.4 0.00 0.00 0.00 88 1009.2
20260506094520 23 360 6.4 27.4 0.00 0.00 0.00 88 1009.2
20260506094423 23 360 6.4 27.4 0.00 0.00 0.00 88 1009.2
20260506094324 23 360 6.4 27.4 0.00 0.00 0.00 88 1009.1
20260506094224 23 360 8.0 27.4 0.00 0.00 0.00 88 1009.2
20260506094126 23 360 9.7 27.4 0.00 0.00 0.00 88 1009.2
20260506094026 23 360 9.7 27.4 0.00 0.00 0.00 88 1009.1
20260506093927 23 360 9.7 20.9 0.00 0.00 0.00 88 1009.1
20260506093827 23 360 9.7 20.9 0.00 0.00 0.00 88 1009.1
20260506093731 23 360 8.0 17.7 0.00 0.00 0.00 88 1009.1
20260506093633 23 360 6.4 17.7 0.00 0.00 0.00 88 1009.1
20260506093533 23 360 6.4 17.7 0.00 0.00 0.00 88 1009.1
20260506093433 23 360 6.4 17.7 0.00 0.00 0.00 88 1009.1
20260506093333 23 360 6.4 17.7 0.00 0.00 0.00 88 1009.1
20260506093253 23 360 6.4 17.7 0.00 0.00 0.00 88 1009.2
20260506093133 23 360 6.4 17.7 0.00 0.00 0.00 88 1009.2
20260506093017 23 360 6.4 17.7 0.00 0.00 0.00 88 1009.1
20260506092938 23 360 6.4 17.7 0.00 0.00 0.00 88 1009.1
20260506092819 23 360 8.0 17.7 0.00 0.00 0.00 88 1009.1
20260506092738 23 360 6.4 17.7 0.00 0.00 0.00 88 1009.0
20260506092618 23 360 6.4 19.3 0.00 0.00 0.00 88 1009.0
20260506092519 23 360 6.4 19.3 0.00 0.00 0.00 88 1008.9
20260506092419 23 360 8.0 19.3 0.00 0.00 0.00 88 1008.9
20260506092324 23 360 6.4 19.3 0.00 0.00 0.00 88 1008.8
20260506092224 23 360 9.7 19.3 0.00 0.00 0.00 88 1008.9
20260506092124 23 360 9.7 19.3 0.00 0.00 0.00 88 1008.8
20260506092025 23 360 9.7 24.1 0.00 0.00 0.00 88 1008.8
20260506091926 23 360 9.7 24.1 0.00 0.00 0.00 88 1008.8
20260506091826 23 360 8.0 24.1 0.00 0.00 0.00 88 1008.8
20260506091726 23 360 8.0 24.1 0.00 0.00 0.00 88 1008.8
20260506091630 23 360 6.4 24.1 0.00 0.00 0.00 88 1008.9
20260506091550 23 360 6.4 24.1 0.00 0.00 0.00 88 1008.9
20260506091430 23 360 8.0 24.1 0.00 0.00 0.00 88 1008.9
20260506091331 23 360 6.4 24.1 0.00 0.00 0.00 88 1008.9
20260506091231 23 360 8.0 24.1 0.00 0.00 0.00 88 1008.8
20260506091152 23 360 8.0 24.1 0.00 0.00 0.00 88 1008.9
20260506091031 23 360 8.0 22.5 0.00 0.00 0.00 88 1008.8
20260506090916 23 360 8.0 22.5 0.00 0.00 0.00 88 1008.7
20260506090817 23 360 8.0 20.9 0.00 0.00 0.00 88 1008.8
20260506090717 23 360 8.0 32.2 0.00 0.00 0.00 88 1008.8
20260506090617 23 360 6.4 32.2 0.00 0.00 0.00 88 1008.8
20260506090518 23 360 6.4 32.2 0.00 0.00 0.00 88 1008.7
20260506090439 23 360 8.0 32.2 0.00 0.00 0.00 88 1008.7
20260506090339 23 360 8.0 32.2 0.00 0.00 0.00 88 1008.7
20260506090223 23 360 9.7 37.0 0.00 0.00 0.00 88 1008.6
20260506090123 23 360 9.7 37.0 0.00 0.00 0.00 88 1008.7
20260506090024 23 360 11.3 37.0 0.00 0.00 0.00 87 1008.7
20260506085926 23 360 11.3 37.0 0.00 0.00 0.00 87 1008.7
20260506085826 23 360 11.3 37.0 0.00 0.00 0.00 87 1008.7
20260506085728 23 360 9.7 37.0 0.00 0.00 0.00 87 1008.6
20260506085627 23 360 12.9 37.0 0.00 0.00 0.00 87 1008.7
20260506085530 23 360 11.3 37.0 0.00 0.00 0.00 87 1008.6
20260506085431 23 360 11.3 32.2 0.00 0.00 0.00 87 1008.6
20260506085331 23 360 11.3 29.0 0.00 0.00 0.00 87 1008.7
20260506085231 23 360 11.3 29.0 0.00 0.00 0.00 87 1008.7
20260506085132 23 360 9.7 29.0 0.00 0.00 0.00 87 1008.7
20260506085033 23 360 11.3 29.0 0.00 0.00 0.00 87 1008.7
20260506084917 23 360 9.7 29.0 0.00 0.00 0.00 87 1008.8
20260506084818 23 360 11.3 29.0 0.00 0.00 0.00 87 1008.8
20260506084718 23 360 11.3 29.0 0.00 0.00 0.00 87 1008.8
20260506084618 23 360 11.3 29.0 0.00 0.00 0.00 87 1008.8
20260506084538 23 360 11.3 29.0 0.00 0.00 0.00 87 1008.7
20260506084417 23 360 11.3 29.0 0.00 0.00 0.00 87 1008.8
20260506084318 23 360 12.9 30.6 0.00 0.00 0.00 87 1008.7
20260506084224 23 360 11.3 30.6 0.00 0.00 0.00 87 1008.7
20260506084143 23 360 8.0 30.6 0.00 0.00 0.00 87 1008.8
20260506084043 23 360 9.7 30.6 0.00 0.00 0.00 87 1008.7
20260506083924 23 360 9.7 30.6 0.00 0.00 0.00 87 1008.7
20260506083824 23 360 8.0 30.6 0.00 0.00 0.00 87 1008.7
20260506083744 23 360 8.0 30.6 0.00 0.00 0.00 87 1008.7
20260506083624 23 360 8.0 30.6 0.00 0.00 0.00 87 1008.6
20260506083525 23 360 11.3 30.6 0.00 0.00 0.00 87 1008.6
20260506083429 23 360 11.3 30.6 0.00 0.00 0.00 87 1008.7
20260506083330 23 360 11.3 30.6 0.00 0.00 0.00 87 1008.7
20260506083229 23 360 11.3 30.6 0.00 0.00 0.00 87 1008.7
20260506083130 23 360 12.9 30.6 0.00 0.00 0.00 87 1008.7
20260506083031 23 360 11.3 22.5 0.00 0.00 0.00 87 1008.7
20260506082932 23 360 9.7 22.5 0.00 0.00 0.00 87 1008.6
20260506082817 23 360 11.3 25.7 0.00 0.00 0.00 87 1008.5
20260506082717 23 360 11.3 25.7 0.00 0.00 0.00 87 1008.5
20260506082618 23 360 11.3 25.7 0.00 0.00 0.00 87 1008.6
20260506082517 23 360 11.3 25.7 0.00 0.00 0.00 87 1008.6
20260506082417 23 360 9.7 29.0 0.00 0.00 0.00 87 1008.7
20260506082318 23 360 9.7 29.0 0.00 0.00 0.00 87 1008.6
20260506082218 23 360 11.3 29.0 0.00 0.00 0.00 87 1008.6
20260506082123 23 360 12.9 29.0 0.00 0.00 0.00 87 1008.7
20260506082023 23 360 14.5 29.0 0.00 0.00 0.00 87 1008.7
20260506081923 23 360 14.5 29.0 0.00 0.00 0.00 87 1008.7
20260506081823 23 360 12.9 29.0 0.00 0.00 0.00 87 1008.7
20260506081724 23 360 12.9 29.0 0.00 0.00 0.00 87 1008.7
20260506081623 23 360 14.5 29.0 0.00 0.00 0.00 87 1008.7
20260506081524 23 360 12.9 29.0 0.00 0.00 0.00 87 1008.7
20260506081428 23 360 9.7 27.4 0.00 0.00 0.00 87 1008.7
20260506081327 23 360 9.7 25.7 0.00 0.00 0.00 87 1008.8
20260506081228 23 360 9.7 25.7 0.00 0.00 0.00 87 1008.8
20260506081148 23 360 9.7 25.7 0.00 0.00 0.00 87 1008.8
20260506081048 23 360 9.7 30.6 0.00 0.00 0.00 87 1008.9
20260506080928 23 360 9.7 30.6 0.00 0.00 0.00 87 1008.8
20260506080828 23 360 9.7 30.6 0.00 0.00 0.00 87 1008.8
20260506080728 23 360 9.7 30.6 0.00 0.00 0.00 87 1008.8
20260506080633 23 360 9.7 30.6 0.00 0.00 0.00 87 1008.9
20260506080550 23 360 9.7 30.6 0.00 0.00 0.00 87 1008.9
20260506080430 23 360 11.3 30.6 0.00 0.00 0.00 87 1008.9
20260506080332 23 360 11.3 30.6 0.00 0.00 0.00 87 1008.9
20260506080233 23 360 12.9 30.6 0.00 0.00 0.00 87 1008.8
20260506080133 23 360 14.5 30.6 0.00 0.00 0.00 87 1008.9
20260506073448 23 360 12.9 27.4 0.00 0.00 0.00 87 1009.1
20260506073329 23 360 11.3 25.7 0.00 0.00 0.00 87 1009.1
20260506073230 23 360 12.9 25.7 0.00 0.00 0.00 87 1009.1
20260506073130 23 360 12.9 25.7 0.00 0.00 0.00 87 1009.1
20260506073030 23 360 14.5 27.4 0.00 0.00 0.00 87 1009.1
20260506072930 23 360 16.1 27.4 0.00 0.00 0.00 87 1009.1
20260506072831 23 360 16.1 27.4 0.00 0.00 0.00 87 1009.2
20260506072736 23 360 16.1 27.4 0.00 0.00 0.00 87 1009.2
20260506072617 23 360 16.1 32.2 0.00 0.00 0.00 87 1009.1
20260506072517 23 360 14.5 32.2 0.00 0.00 0.00 87 1009.1
20260506072417 23 360 14.5 32.2 0.00 0.00 0.00 87 1009.1
20260506072318 23 360 14.5 32.2 0.00 0.00 0.00 87 1009.2
20260506072218 23 360 14.5 32.2 0.00 0.00 0.00 87 1009.2
20260506072119 23 360 12.9 32.2 0.00 0.00 0.00 87 1009.2
20260506072024 23 360 14.5 32.2 0.00 0.00 0.00 87 1009.2
20260506071924 23 360 14.5 32.2 0.00 0.00 0.00 87 1009.4
20260506071825 23 360 14.5 32.2 0.00 0.00 0.00 87 1009.4
20260506071726 23 360 14.5 32.2 0.00 0.00 0.00 87 1009.3
20260506071646 23 360 12.9 32.2 0.00 0.00 0.00 87 1009.4
20260506071526 23 360 12.9 32.2 0.00 0.00 0.00 87 1009.4
20260506071446 23 360 11.3 32.2 0.00 0.00 0.00 87 1009.3
20260506071330 23 360 11.3 32.2 0.00 0.00 0.00 87 1009.4
20260506071232 23 360 11.3 32.2 0.00 0.00 0.00 87 1009.2
20260506071131 23 360 12.9 32.2 0.00 0.00 0.00 87 1009.3
20260506071034 23 360 12.9 32.2 0.00 0.00 0.00 87 1009.2
20260506070935 23 360 14.5 32.2 0.00 0.00 0.00 87 1009.2
20260506070816 23 360 14.5 33.8 0.00 0.00 0.00 87 1009.3
20260506070722 23 360 14.5 33.8 0.00 0.00 0.00 87 1009.2
20260506070620 23 360 14.5 33.8 0.00 0.00 0.00 87 1009.3
20260506070521 23 360 16.1 33.8 0.00 0.00 0.00 87 1009.4
20260506070422 23 360 14.5 33.8 0.00 0.00 0.00 87 1009.3
20260506070323 23 360 14.5 33.8 0.00 0.00 0.00 87 1009.4
20260506070224 23 360 16.1 33.8 0.00 0.00 0.00 87 1009.4
20260506070123 23 360 16.1 33.8 0.00 0.00 0.00 87 1009.4
20260506062436 23 360 9.7 29.0 0.00 0.00 0.00 86 1009.3
20260506062356 23 360 8.0 29.0 0.00 0.00 0.00 86 1009.4
20260506062236 23 360 8.0 29.0 0.00 0.00 0.00 86 1009.4
20260506062120 23 360 11.3 29.0 0.00 0.00 0.00 86 1009.4
20260506062021 23 360 12.9 29.0 0.00 0.00 0.00 87 1009.5
20260506061922 23 360 12.9 27.4 0.00 0.00 0.00 86 1009.5
20260506061843 23 360 14.5 27.4 0.00 0.00 0.00 87 1009.5
20260506061723 24 360 14.5 27.4 0.00 0.00 0.00 87 1009.5
20260506061643 24 360 14.5 27.4 0.00 0.00 0.00 87 1009.5
20260506061522 23 360 14.5 27.4 0.00 0.00 0.00 87 1009.5
20260506061427 24 360 14.5 25.7 0.00 0.00 0.00 87 1009.5
20260506061327 23 360 12.9 38.6 0.00 0.00 0.00 86 1009.5
20260506061228 23 360 11.3 38.6 0.00 0.00 0.00 86 1009.5
20260506061127 23 360 9.7 38.6 0.00 0.00 0.00 87 1009.5
20260506061029 24 360 11.3 38.6 0.00 0.00 0.00 87 1009.4
20260506060950 23 360 14.5 38.6 0.00 0.00 0.00 87 1009.4
20260506060828 23 360 16.1 38.6 0.00 0.00 0.00 86 1009.4
20260506060729 24 360 16.1 38.6 0.00 0.00 0.00 86 1009.4
20260506060633 24 360 17.7 38.6 0.00 0.00 0.00 86 1009.3
20260506060533 23 360 17.7 38.6 0.00 0.00 0.00 87 1009.3
20260506060434 23 360 19.3 38.6 0.00 0.00 0.00 87 1009.3
20260506060334 23 360 17.7 38.6 0.00 0.00 0.00 87 1009.3
20260506060235 23 360 16.1 38.6 0.00 0.00 0.00 87 1009.3
20260506060135 23 360 16.1 30.6 0.00 0.00 0.00 87 1009.4
20260506051315 -17 0.0 0.0 0.00 0.00 0.00 1009.5
20260506051223 -17 0.0 0.0 0.00 0.00 0.00 1009.5
20260506051127 -17 0.0 0.0 0.00 0.00 0.00 1009.5
20260506051051 -17 0.0 0.0 0.00 0.00 0.00 1009.5
20260506050914 -17 0.0 0.0 0.00 0.00 0.00 1009.6
20260506050818 -17 0.0 0.0 0.00 0.00 0.00 1009.5
20260506050722 -17 0.0 0.0 0.00 0.00 0.00 1009.4
20260506050625 -17 0.0 0.0 0.00 0.00 0.00 1009.4
20260506050553 -17 0.0 0.0 0.00 0.00 0.00 1009.6
20260506050319 -17 0.0 0.0 0.00 0.00 0.00 1009.6
20260506050223 -17 0.0 0.0 0.00 0.00 0.00 1009.5
20260506050127 -17 0.0 0.0 0.00 0.00 0.00 1009.5
20260506045116 -17 0.0 0.0 0.00 0.00 0.00 1009.6
20260506045023 -17 0.0 0.0 0.00 0.00 0.00 1009.6
20260506044927 -17 0.0 0.0 0.00 0.00 0.00 1009.5
20260506044831 -17 0.0 0.0 0.00 0.00 0.00 1009.5
20260506044754 -17 0.0 0.0 0.00 0.00 0.00 1009.5
20260506044719 -17 0.0 0.0 0.00 0.00 0.00 1009.5
20260506044514 -17 0.0 0.0 0.00 0.00 0.00 1009.5
20260506044438 -17 0.0 0.0 0.00 0.00 0.00 1009.5
20260506044325 -17 0.0 0.0 0.00 0.00 0.00 1009.5
20260506044228 -17 0.0 0.0 0.00 0.00 0.00 1009.5
20260506044132 -17 0.0 0.0 0.00 0.00 0.00 1009.5
20260506044035 -17 0.0 0.0 0.00 0.00 0.00 1009.4
20260506043938 -17 0.0 0.0 0.00 0.00 0.00 1009.4
20260506043814 -17 0.0 0.0 0.00 0.00 0.00 1009.4
20260506043717 -17 0.0 0.0 0.00 0.00 0.00 1009.5
20260506043626 -17 0.0 0.0 0.00 0.00 0.00 1009.5
20260506043530 -17 0.0 0.0 0.00 0.00 0.00 1009.3
20260506043414 -17 0.0 0.0 0.00 0.00 0.00 1009.5
20260506043318 -17 0.0 0.0 0.00 0.00 0.00 1009.4
20260506043221 -17 0.0 0.0 0.00 0.00 0.00 1009.4
20260506043125 -17 0.0 0.0 0.00 0.00 0.00 1009.4
20260506043031 -17 0.0 0.0 0.00 0.00 0.00 1009.4
20260506042915 -17 0.0 0.0 0.00 0.00 0.00 1009.3
20260506042820 -17 0.0 0.0 0.00 0.00 0.00 1009.4
20260506042723 -17 0.0 0.0 0.00 0.00 0.00 1009.4
20260506042646 -17 0.0 0.0 0.00 0.00 0.00 1009.4
20260506042528 -17 0.0 0.0 0.00 0.00 0.00 1009.4
20260506042436 -17 0.0 0.0 0.00 0.00 0.00 1009.4
20260506042338 -17 0.0 0.0 0.00 0.00 0.00 1009.4
20260506042214 -17 0.0 0.0 0.00 0.00 0.00 1009.3
20260506042118 -17 0.0 0.0 0.00 0.00 0.00 1009.4
20260506042021 -17 0.0 0.0 0.00 0.00 0.00 1009.4
20260506041925 -17 0.0 0.0 0.00 0.00 0.00 1009.4
20260506041828 -17 0.0 0.0 0.00 0.00 0.00 1009.3
20260506041715 -17 0.0 0.0 0.00 0.00 0.00 1009.4
20260506041618 -17 0.0 0.0 0.00 0.00 0.00 1009.4
20260506041522 -17 0.0 0.0 0.00 0.00 0.00 1009.3
20260506041446 -17 0.0 0.0 0.00 0.00 0.00 1009.2
20260506041315 -17 0.0 0.0 0.00 0.00 0.00 1009.3
20260506041239 -17 0.0 0.0 0.00 0.00 0.00 1009.3
20260506041123 -17 0.0 0.0 0.00 0.00 0.00 1009.3
20260506041030 -17 0.0 0.0 0.00 0.00 0.00 1009.3
20260506040913 -17 0.0 0.0 0.00 0.00 0.00 1009.2
20260506040838 -17 0.0 0.0 0.00 0.00 0.00 1009.3
20260506040719 -17 0.0 0.0 0.00 0.00 0.00 1009.2
20260506040623 -17 0.0 0.0 0.00 0.00 0.00 1009.2
20260506040526 -17 0.0 0.0 0.00 0.00 0.00 1009.3
20260506040415 -17 0.0 0.0 0.00 0.00 0.00 1009.4
20260506040339 -17 0.0 0.0 0.00 0.00 0.00 1009.4
20260506040214 -17 0.0 0.0 0.00 0.00 0.00 1009.2
20260506040139 -17 0.0 0.0 0.00 0.00 0.00 1009.2
20260506040014 -17 0.0 0.0 0.00 0.00 0.00 1009.1
20260506035918 -17 0.0 0.0 0.00 0.00 0.00 1009.1
20260506035842 -17 0.0 0.0 0.00 0.00 0.00 1009.1
20260506035750 -17 0.0 0.0 0.00 0.00 0.00 1009.1
20260506035713 -17 0.0 0.0 0.00 0.00 0.00 1009.1
20260506035532 -17 0.0 0.0 0.00 0.00 0.00 1009.1
20260506035416 -17 0.0 0.0 0.00 0.00 0.00 1009.1
20260506035321 -17 0.0 0.0 0.00 0.00 0.00 1009.0
20260506035225 -17 0.0 0.0 0.00 0.00 0.00 1009.0
20260506035128 -17 0.0 0.0 0.00 0.00 0.00 1009.1
20260506035015 -17 0.0 0.0 0.00 0.00 0.00 1009.1
20260506034919 -17 0.0 0.0 0.00 0.00 0.00 1009.0
20260506034823 -17 0.0 0.0 0.00 0.00 0.00 1009.1
20260506034747 -17 0.0 0.0 0.00 0.00 0.00 1009.1
20260506034628 -17 0.0 0.0 0.00 0.00 0.00 1009.0
20260506034513 -17 0.0 0.0 0.00 0.00 0.00 1009.1
20260506034421 -17 0.0 0.0 0.00 0.00 0.00 1009.0
20260506034346 -17 0.0 0.0 0.00 0.00 0.00 1009.0
20260506034229 -17 0.0 0.0 0.00 0.00 0.00 1009.1
20260506034152 -17 0.0 0.0 0.00 0.00 0.00 1009.0
20260506034034 -17 0.0 0.0 0.00 0.00 0.00 1009.0
20260506033958 -17 0.0 0.0 0.00 0.00 0.00 1009.0
20260506033751 -17 0.0 0.0 0.00 0.00 0.00 1009.1
20260506033619 -17 0.0 0.0 0.00 0.00 0.00 1008.9
20260506033522 -17 0.0 0.0 0.00 0.00 0.00 1008.9
20260506033426 -17 0.0 0.0 0.00 0.00 0.00 1008.9
20260506033328 -17 0.0 0.0 0.00 0.00 0.00 1008.9
20260506033232 -17 0.0 0.0 0.00 0.00 0.00 1008.9
20260506033115 -17 0.0 0.0 0.00 0.00 0.00 1008.8
20260506033023 -17 0.0 0.0 0.00 0.00 0.00 1008.7
20260506032926 -17 0.0 0.0 0.00 0.00 0.00 1008.7
20260506032830 -17 0.0 0.0 0.00 0.00 0.00 1008.8
20260506032713 -17 0.0 0.0 0.00 0.00 0.00 1008.7
20260506032617 -17 0.0 0.0 0.00 0.00 0.00 1008.7
20260506032521 -17 0.0 0.0 0.00 0.00 0.00 1008.7
20260506032428 -17 0.0 0.0 0.00 0.00 0.00 1008.7
20260506032331 -17 0.0 0.0 0.00 0.00 0.00 1008.7
20260506032255 -17 0.0 0.0 0.00 0.00 0.00 1008.7
20260506032030 -17 0.0 0.0 0.00 0.00 0.00 1008.7
20260506031914 -17 0.0 0.0 0.00 0.00 0.00 1008.6
20260506031818 -17 0.0 0.0 0.00 0.00 0.00 1008.6
20260506031726 -17 0.0 0.0 0.00 0.00 0.00 1008.6
20260506031628 -17 0.0 0.0 0.00 0.00 0.00 1008.5
20260506031531 -17 0.0 0.0 0.00 0.00 0.00 1008.5
20260506031413 -17 0.0 0.0 0.00 0.00 0.00 1008.6
20260506031337 -17 0.0 0.0 0.00 0.00 0.00 1008.5
20260506031220 -17 0.0 0.0 0.00 0.00 0.00 1008.5
20260506031124 -17 0.0 0.0 0.00 0.00 0.00 1008.5
20260506031031 -17 0.0 0.0 0.00 0.00 0.00 1008.5
20260506030914 -17 0.0 0.0 0.00 0.00 0.00 1008.6
20260506030819 -17 0.0 0.0 0.00 0.00 0.00 1008.5
20260506030721 -17 0.0 0.0 0.00 0.00 0.00 1008.5
20260506030625 -17 0.0 0.0 0.00 0.00 0.00 1008.5
20260506030530 -17 0.0 0.0 0.00 0.00 0.00 1008.5
20260506030417 -17 0.0 0.0 0.00 0.00 0.00 1008.4
20260506030341 -17 0.0 0.0 0.00 0.00 0.00 1008.3
20260506030223 -17 0.0 0.0 0.00 0.00 0.00 1008.3
20260506030127 -17 0.0 0.0 0.00 0.00 0.00 1008.4
20260506030030 -17 0.0 0.0 0.00 0.00 0.00 1008.3
20260506025913 -17 0.0 0.0 0.00 0.00 0.00 1008.3
20260506025817 -17 0.0 0.0 0.00 0.00 0.00 1008.3
20260506025726 -17 0.0 0.0 0.00 0.00 0.00 1008.3
20260506025627 -17 0.0 0.0 0.00 0.00 0.00 1008.4
20260506025531 -17 0.0 0.0 0.00 0.00 0.00 1008.4
20260506025415 -17 0.0 0.0 0.00 0.00 0.00 1008.4
20260506025319 -17 0.0 0.0 0.00 0.00 0.00 1008.4
20260506025223 -17 0.0 0.0 0.00 0.00 0.00 1008.4
20260506025129 -17 0.0 0.0 0.00 0.00 0.00 1008.4
20260506025032 -17 0.0 0.0 0.00 0.00 0.00 1008.3
20260506024933 -17 0.0 0.0 0.00 0.00 0.00 1008.1
20260506024813 -17 0.0 0.0 0.00 0.00 0.00 1008.2
20260506024736 -17 0.0 0.0 0.00 0.00 0.00 1008.2
20260506024619 -17 0.0 0.0 0.00 0.00 0.00 1008.1
20260506024523 -17 0.0 0.0 0.00 0.00 0.00 1008.1
20260506024447 -17 0.0 0.0 0.00 0.00 0.00 1008.0
20260506024332 -17 0.0 0.0 0.00 0.00 0.00 1008.1
20260506024236 -17 0.0 0.0 0.00 0.00 0.00 1008.0
20260506024138 -17 0.0 0.0 0.00 0.00 0.00 1008.0
20260506024014 -17 0.0 0.0 0.00 0.00 0.00 1007.9
20260506023938 -17 0.0 0.0 0.00 0.00 0.00 1007.9
20260506023820 -17 0.0 0.0 0.00 0.00 0.00 1007.9
20260506023724 -17 0.0 0.0 0.00 0.00 0.00 1007.9
20260506023626 -17 0.0 0.0 0.00 0.00 0.00 1007.9
20260506023514 -17 0.0 0.0 0.00 0.00 0.00 1007.8
20260506023416 -17 0.0 0.0 0.00 0.00 0.00 1007.8
20260506023320 -17 0.0 0.0 0.00 0.00 0.00 1007.8
20260506023243 -17 0.0 0.0 0.00 0.00 0.00 1007.8
20260506023126 -17 0.0 0.0 0.00 0.00 0.00 1007.8
20260506023029 -17 0.0 0.0 0.00 0.00 0.00 1007.9
20260506022916 -17 0.0 0.0 0.00 0.00 0.00 1007.8
20260506022821 -17 0.0 0.0 0.00 0.00 0.00 1007.7
20260506022744 -17 0.0 0.0 0.00 0.00 0.00 1007.8
20260506022626 -17 0.0 0.0 0.00 0.00 0.00 1007.8
20260506022529 -17 0.0 0.0 0.00 0.00 0.00 1007.7
20260506022413 -17 0.0 0.0 0.00 0.00 0.00 1007.7
20260506022319 -17 0.0 0.0 0.00 0.00 0.00 1007.7
20260506022223 -17 0.0 0.0 0.00 0.00 0.00 1007.6
20260506022126 -17 0.0 0.0 0.00 0.00 0.00 1007.6
20260506022029 -17 0.0 0.0 0.00 0.00 0.00 1007.7
20260506021953 -17 0.0 0.0 0.00 0.00 0.00 1007.6
20260506021816 -17 0.0 0.0 0.00 0.00 0.00 1007.5
20260506021719 -17 0.0 0.0 0.00 0.00 0.00 1007.5
20260506021626 -17 0.0 0.0 0.00 0.00 0.00 1007.5
20260506021530 -17 0.0 0.0 0.00 0.00 0.00 1007.5
20260506021433 -17 0.0 0.0 0.00 0.00 0.00 1007.5
20260506021342 -17 0.0 0.0 0.00 0.00 0.00 1007.4
20260506021225 -17 0.0 0.0 0.00 0.00 0.00 1007.4
20260506021128 -17 0.0 0.0 0.00 0.00 0.00 1007.3
20260506021052 -17 0.0 0.0 0.00 0.00 0.00 1007.3
20260506020918 -17 0.0 0.0 0.00 0.00 0.00 1007.3
20260506020842 -17 0.0 0.0 0.00 0.00 0.00 1007.4
20260506020745 -17 0.0 0.0 0.00 0.00 0.00 1007.4
20260506020646 -17 0.0 0.0 0.00 0.00 0.00 1007.3
20260506020529 -17 0.0 0.0 0.00 0.00 0.00 1007.3
20260506020431 -17 0.0 0.0 0.00 0.00 0.00 1007.4
20260506020315 -17 0.0 0.0 0.00 0.00 0.00 1007.3
20260506020239 -17 0.0 0.0 0.00 0.00 0.00 1007.3
20260506020145 -17 0.0 0.0 0.00 0.00 0.00 1007.3
20260506020027 -17 0.0 0.0 0.00 0.00 0.00 1007.3
20260506015951 -17 0.0 0.0 0.00 0.00 0.00 1007.3
20260506015815 -17 0.0 0.0 0.00 0.00 0.00 1007.3
20260506015738 -17 0.0 0.0 0.00 0.00 0.00 1007.2
20260506015641 -17 0.0 0.0 0.00 0.00 0.00 1007.2
20260506015522 -17 0.0 0.0 0.00 0.00 0.00 1007.3
20260506015426 -17 0.0 0.0 0.00 0.00 0.00 1007.3
20260506015314 -17 0.0 0.0 0.00 0.00 0.00 1007.2
20260506015218 -17 0.0 0.0 0.00 0.00 0.00 1007.2
20260506015121 -17 0.0 0.0 0.00 0.00 0.00 1007.2
20260506015025 -17 0.0 0.0 0.00 0.00 0.00 1007.2
20260506014950 -17 0.0 0.0 0.00 0.00 0.00 1007.1
20260506014813 -17 0.0 0.0 0.00 0.00 0.00 1007.1
20260506014740 -17 0.0 0.0 0.00 0.00 0.00 1007.1
20260506014617 -17 0.0 0.0 0.00 0.00 0.00 1007.2
20260506014521 -17 0.0 0.0 0.00 0.00 0.00 1007.2
20260506014444 -17 0.0 0.0 0.00 0.00 0.00 1007.3
20260506014326 -17 0.0 0.0 0.00 0.00 0.00 1007.3
20260506014228 -17 0.0 0.0 0.00 0.00 0.00 1007.2
20260506013409 26 360 8.0 14.5 0.00 0.00 0.00 78 1007.1
20260506013244 26 360 8.0 14.5 0.00 0.00 0.00 78 1007.1
20260506013116 26 360 8.0 14.5 0.00 0.00 0.00 78 1007.1
20260506013017 26 360 8.0 14.5 0.00 0.00 0.00 78 1007.1
20260506012918 26 360 8.0 16.1 0.00 0.00 0.00 78 1007.1
20260506012820 26 360 8.0 16.1 0.00 0.00 0.00 78 1007.1
20260506012724 26 360 8.0 16.1 0.00 0.00 0.00 78 1007.0
20260506012624 26 360 8.0 16.1 0.00 0.00 0.00 78 1007.0
20260506012544 26 360 8.0 16.1 0.00 0.00 0.00 78 1007.0
20260506012424 26 360 8.0 16.1 0.00 0.00 0.00 77 1007.0
20260506012325 26 360 8.0 16.1 0.00 0.00 0.00 77 1007.0
20260506012224 26 360 8.0 16.1 0.00 0.00 0.00 77 1007.0
20260506012126 26 360 8.0 16.1 0.00 0.00 0.00 77 1007.0
20260506012030 26 360 8.0 16.1 0.00 0.00 0.00 77 1007.0
20260506011931 26 360 9.7 16.1 0.00 0.00 0.00 77 1007.1
20260506011831 26 360 9.7 16.1 0.00 0.00 0.00 77 1007.0
20260506011732 26 360 9.7 16.1 0.00 0.00 0.00 77 1007.1
20260506011633 26 360 9.7 16.1 0.00 0.00 0.00 77 1007.0
20260506011534 26 360 9.7 16.1 0.00 0.00 0.00 77 1007.1
20260506011418 26 360 9.7 16.1 0.00 0.00 0.00 77 1007.1
20260506011319 27 360 9.7 16.1 0.00 0.00 0.00 77 1007.1
20260506011219 27 360 9.7 16.1 0.00 0.00 0.00 76 1007.1
20260506011119 27 360 9.7 16.1 0.00 0.00 0.00 76 1007.1
20260506011022 27 360 8.0 14.5 0.00 0.00 0.00 76 1007.2
20260506010921 27 360 8.0 14.5 0.00 0.00 0.00 76 1007.1
20260506010842 27 360 8.0 14.5 0.00 0.00 0.00 76 1007.2
20260506010721 27 360 8.0 14.5 0.00 0.00 0.00 76 1007.3
20260506010624 27 360 8.0 14.5 0.00 0.00 0.00 76 1007.2
20260506010524 27 360 8.0 14.5 0.00 0.00 0.00 76 1007.2
20260506010425 27 360 8.0 14.5 0.00 0.00 0.00 76 1007.2
20260506010325 27 360 8.0 14.5 0.00 0.00 0.00 76 1007.0
20260506010245 27 360 8.0 14.5 0.00 0.00 0.00 76 1007.0
20260506010145 27 360 8.0 14.5 0.00 0.00 0.00 76 1007.0
20260506010024 27 360 8.0 14.5 0.00 0.00 0.00 76 1007.1
20260506005925 27 360 8.0 14.5 0.00 0.00 0.00 76 1007.1
20260506005830 27 360 8.0 14.5 0.00 0.00 0.00 75 1007.1
20260506005732 27 360 8.0 14.5 0.00 0.00 0.00 75 1007.1
20260506005632 27 360 8.0 14.5 0.00 0.00 0.00 75 1007.1
20260506005533 27 360 8.0 14.5 0.00 0.00 0.00 75 1007.0
20260506005433 27 360 8.0 12.9 0.00 0.00 0.00 75 1007.1
20260506005333 27 360 8.0 12.9 0.00 0.00 0.00 75 1007.1
20260506005218 27 360 6.4 12.9 0.00 0.00 0.00 74 1007.1
20260506005119 27 360 6.4 12.9 0.00 0.00 0.00 74 1007.0
20260506005019 27 360 6.4 12.9 0.00 0.00 0.00 74 1007.1
20260506004940 27 360 6.4 12.9 0.00 0.00 0.00 74 1007.1
20260506004820 27 360 6.4 12.9 0.00 0.00 0.00 74 1007.1
20260506004721 27 360 6.4 12.9 0.00 0.00 0.00 74 1007.1
20260506004623 27 360 6.4 12.9 0.00 0.00 0.00 74 1007.2
20260506004528 27 360 6.4 12.9 0.00 0.00 0.00 74 1007.2
20260506004448 27 360 6.4 12.9 0.00 0.00 0.00 74 1007.2
20260506004327 27 360 6.4 12.9 0.00 0.00 0.00 74 1007.1
20260506004228 27 360 6.4 12.9 0.00 0.00 0.00 74 1007.2
20260506004129 27 360 6.4 12.9 0.00 0.00 0.00 74 1007.1
20260506004029 27 360 6.4 12.9 0.00 0.00 0.00 74 1007.1
20260506003930 27 360 6.4 12.9 0.00 0.00 0.00 74 1007.0
20260506003849 27 360 6.4 12.9 0.00 0.00 0.00 74 1007.0
20260506003733 27 360 4.8 12.9 0.00 0.00 0.00 74 1007.1
20260506003634 27 360 4.8 12.9 0.00 0.00 0.00 73 1007.0
20260506003534 27 360 6.4 19.3 0.00 0.00 0.00 73 1007.0
20260506003435 27 360 6.4 19.3 0.00 0.00 0.00 73 1007.0
20260506003316 27 360 6.4 19.3 0.00 0.00 0.00 73 1007.0
20260506003215 27 360 6.4 19.3 0.00 0.00 0.00 73 1007.0
20260506003120 27 360 6.4 19.3 0.00 0.00 0.00 73 1007.0
20260506003021 27 360 6.4 19.3 0.00 0.00 0.00 73 1007.0
20260506002922 27 360 6.4 19.3 0.00 0.00 0.00 73 1007.0
20260506002824 27 360 6.4 19.3 0.00 0.00 0.00 73 1007.0
20260506002724 27 360 6.4 19.3 0.00 0.00 0.00 73 1006.9
20260506002644 27 360 6.4 19.3 0.00 0.00 0.00 73 1006.9
20260506002524 27 360 4.8 19.3 0.00 0.00 0.00 73 1007.0
20260506002429 27 360 4.8 14.5 0.00 0.00 0.00 73 1007.0
20260506002350 27 360 4.8 14.5 0.00 0.00 0.00 73 1007.0
20260506002229 27 360 4.8 14.5 0.00 0.00 0.00 73 1007.0
20260506002129 27 360 4.8 14.5 0.00 0.00 0.00 73 1007.0
20260506002029 27 360 4.8 14.5 0.00 0.00 0.00 73 1007.0
20260506001930 27 360 3.2 14.5 0.00 0.00 0.00 73 1007.0
20260506001851 27 360 3.2 14.5 0.00 0.00 0.00 73 1007.0
20260506001748 27 360 4.8 14.5 0.00 0.00 0.00 73 1007.0
20260506001631 27 360 4.8 14.5 0.00 0.00 0.00 73 1007.0
20260506001531 27 360 4.8 14.5 0.00 0.00 0.00 73 1007.0
20260506001432 27 360 4.8 14.5 0.00 0.00 0.00 73 1007.1
20260506001353 27 360 6.4 14.5 0.00 0.00 0.00 73 1007.0
20260506001234 27 360 6.4 14.5 0.00 0.00 0.00 73 1007.0
20260506001154 27 360 6.4 14.5 0.00 0.00 0.00 73 1007.0
20260506001033 27 360 6.4 14.5 0.00 0.00 0.00 73 1007.0
20260506000917 27 360 6.4 12.9 0.00 0.00 0.00 72 1007.0
20260506000818 27 360 6.4 12.9 0.00 0.00 0.00 72 1007.0
20260506000719 28 360 6.4 12.9 0.00 0.00 0.00 72 1006.9
20260506000619 28 360 4.8 12.9 0.00 0.00 0.00 72 1006.9
20260506000520 28 360 4.8 14.5 0.00 0.00 0.00 72 1006.7
20260506000420 28 360 4.8 14.5 0.00 0.00 0.00 72 1006.8
20260506000322 28 360 6.4 14.5 0.00 0.00 0.00 72 1006.9
20260506000226 28 360 6.4 19.3 0.00 0.00 0.00 72 1006.8
20260506000125 28 360 6.4 19.3 0.00 0.00 0.00 72 1006.9
20260506000027 28 360 6.4 19.3 0.00 0.00 0.00 71 1006.9
20260505235927 28 360 8.0 19.3 0.00 0.00 0.00 71 1006.8
20260505235827 28 360 8.0 19.3 0.00 0.00 0.00 71 1006.9
20260505235729 28 360 8.0 19.3 0.00 0.00 0.00 71 1006.9
20260505235631 28 360 8.0 19.3 0.00 0.00 0.00 71 1006.9
20260505235531 28 360 6.4 16.1 0.00 0.00 0.00 71 1006.9
20260505235432 28 360 6.4 16.1 0.00 0.00 0.00 71 1006.8
20260505235331 28 360 6.4 16.1 0.00 0.00 0.00 72 1006.7
20260505235232 28 360 4.8 16.1 0.00 0.00 0.00 72 1006.7
20260505235133 28 360 4.8 16.1 0.00 0.00 0.00 72 1006.9
20260505235033 28 360 4.8 16.1 0.00 0.00 0.00 72 1006.8
20260505234917 28 360 6.4 22.5 0.00 0.00 0.00 72 1006.8
20260505234817 28 360 4.8 22.5 0.00 0.00 0.00 72 1006.7
20260505234718 28 360 6.4 22.5 0.00 0.00 0.00 72 1006.7
20260505234619 28 360 6.4 22.5 0.00 0.00 0.00 72 1006.7
20260505234518 28 360 8.0 22.5 0.00 0.00 0.00 72 1006.8
20260505234419 28 360 9.7 22.5 0.00 0.00 0.00 71 1006.7
20260505234340 28 360 9.7 22.5 0.00 0.00 0.00 71 1006.6
20260505234224 28 360 8.0 22.5 0.00 0.00 0.00 71 1006.6
20260505234125 28 360 8.0 22.5 0.00 0.00 0.00 71 1006.6
20260505234024 28 360 8.0 22.5 0.00 0.00 0.00 71 1006.6
20260505233925 28 360 6.4 20.9 0.00 0.00 0.00 72 1006.7
20260505233845 28 360 6.4 20.9 0.00 0.00 0.00 72 1006.6
20260505233724 28 360 6.4 20.9 0.00 0.00 0.00 72 1006.7
20260505233624 28 360 6.4 20.9 0.00 0.00 0.00 72 1006.7
20260505233529 28 360 6.4 20.9 0.00 0.00 0.00 72 1006.7
20260505233430 28 360 6.4 20.9 0.00 0.00 0.00 72 1006.7
20260505233331 28 360 8.0 20.9 0.00 0.00 0.00 72 1006.7
20260505233231 28 360 9.7 20.9 0.00 0.00 0.00 72 1006.7
20260505233134 28 360 9.7 20.9 0.00 0.00 0.00 72 1006.8
20260505233034 28 360 9.7 24.1 0.00 0.00 0.00 72 1006.8
20260505232919 28 360 8.0 24.1 0.00 0.00 0.00 72 1006.7
20260505232821 28 360 8.0 24.1 0.00 0.00 0.00 72 1006.7
20260505232720 28 360 9.7 24.1 0.00 0.00 0.00 72 1006.8
20260505232621 28 360 9.7 24.1 0.00 0.00 0.00 72 1006.8
20260505232522 28 360 9.7 24.1 0.00 0.00 0.00 72 1006.7
20260505232423 27 360 11.3 24.1 0.00 0.00 0.00 72 1006.7
20260505232323 27 360 12.9 24.1 0.00 0.00 0.00 72 1006.7
20260505232227 27 360 11.3 24.1 0.00 0.00 0.00 72 1006.7
20260505232128 27 360 9.7 24.1 0.00 0.00 0.00 72 1006.7
20260505232028 27 360 9.7 24.1 0.00 0.00 0.00 72 1006.6
20260505231949 27 360 8.0 24.1 0.00 0.00 0.00 72 1006.7
20260505231827 28 360 8.0 24.1 0.00 0.00 0.00 72 1006.7
20260505231728 28 360 8.0 24.1 0.00 0.00 0.00 71 1006.7
20260505231631 28 360 8.0 20.9 0.00 0.00 0.00 71 1006.7
20260505231535 28 360 8.0 20.9 0.00 0.00 0.00 71 1006.7
20260505231456 28 360 8.0 20.9 0.00 0.00 0.00 71 1006.8
20260505231335 28 360 8.0 20.9 0.00 0.00 0.00 71 1006.8
20260505231216 28 360 8.0 20.9 0.00 0.00 0.00 71 1006.8
20260505231116 28 360 6.4 20.9 0.00 0.00 0.00 71 1006.8
20260505231017 28 360 8.0 20.9 0.00 0.00 0.00 71 1006.7
20260505230916 28 360 8.0 20.9 0.00 0.00 0.00 71 1006.8
20260505230821 28 360 8.0 20.9 0.00 0.00 0.00 71 1006.7
20260505230722 28 360 8.0 20.9 0.00 0.00 0.00 71 1006.7
20260505230643 28 360 9.7 20.9 0.00 0.00 0.00 71 1006.7
20260505230522 28 360 8.0 20.9 0.00 0.00 0.00 71 1006.6
20260505230442 28 360 8.0 20.9 0.00 0.00 0.00 71 1006.6
20260505230316 28 360 9.7 20.9 0.00 0.00 0.00 71 1006.6
20260505230216 28 360 11.3 25.7 0.00 0.00 0.00 71 1006.6
20260505230121 28 360 11.3 25.7 0.00 0.00 0.00 71 1006.6
20260505230021 28 360 11.3 24.1 0.00 0.00 0.00 71 1006.5
20260505225942 28 360 11.3 24.1 0.00 0.00 0.00 71 1006.6
20260505225822 28 360 9.7 24.1 0.00 0.00 0.00 71 1006.6
20260505225744 28 360 9.7 24.1 0.00 0.00 0.00 71 1006.6
20260505225616 28 360 8.0 24.1 0.00 0.00 0.00 71 1006.5
20260505225517 28 360 6.4 24.1 0.00 0.00 0.00 71 1006.5
20260505225421 28 360 6.4 24.1 0.00 0.00 0.00 71 1006.6
20260505225323 28 360 6.4 22.5 0.00 0.00 0.00 71 1006.5
20260505225243 28 360 6.4 22.5 0.00 0.00 0.00 71 1006.5
20260505225116 28 360 8.0 22.5 0.00 0.00 0.00 71 1006.5
20260505225017 28 360 9.7 22.5 0.00 0.00 0.00 71 1006.6
20260505224918 28 360 9.7 22.5 0.00 0.00 0.00 71 1006.6
20260505224822 28 360 8.0 22.5 0.00 0.00 0.00 71 1006.6